Time,TemperatureF,DewpointF,PressureIn,WindDirection,WindDirectionDegrees,WindSpeedMPH,WindSpeedGustMPH,Humidity,HourlyPrecipIn,Conditions,Clouds,dailyrainin,SoftwareType,DateUTC
2013-06-18 00:01:00,64.3,63.1,29.93,WSW,244,0.0,0.0,96,0.00,,,1.69,Wunderground v.1.15,2013-06-18 04:01:00,
2013-06-18 00:02:00,64.3,63.1,29.93,WSW,244,0.0,0.0,96,0.00,,,1.69,Wunderground v.1.15,2013-06-18 04:02:00,
2013-06-18 00:04:00,64.2,63.0,29.93,WSW,244,0.0,0.0,96,0.00,,,0.00,Wunderground v.1.15,2013-06-18 04:04:00,
2013-06-18 00:07:00,64.2,63.0,29.93,WSW,244,0.0,0.0,96,0.00,,,0.00,Wunderground v.1.15,2013-06-18 04:07:00,
2013-06-18 00:08:00,64.3,63.1,29.93,WSW,244,0.0,0.0,96,0.00,,,0.00,Wunderground v.1.15,2013-06-18 04:08:00,
2013-06-18 00:10:00,64.2,63.0,29.92,WSW,244,0.0,0.0,96,0.00,,,0.00,Wunderground v.1.15,2013-06-18 04:10:00,
2013-06-18 00:13:00,64.2,63.0,29.92,WSW,244,0.0,0.0,96,0.00,,,0.00,Wunderground v.1.15,2013-06-18 04:13:00,
2013-06-18 00:14:00,64.2,63.0,29.91,WSW,244,0.0,0.0,96,0.00,,,0.00,Wunderground v.1.15,2013-06-18 04:14:00,
2013-06-18 00:16:00,64.2,63.0,29.91,WSW,244,0.0,0.0,96,0.00,,,0.00,Wunderground v.1.15,2013-06-18 04:16:00,
2013-06-18 00:17:00,64.2,63.0,29.91,WSW,244,0.0,0.0,96,0.00,,,0.00,Wunderground v.1.15,2013-06-18 04:17:00,
2013-06-18 00:20:00,64.2,63.0,29.91,WSW,244,0.0,0.0,96,0.00,,,0.00,Wunderground v.1.15,2013-06-18 04:20:00,
2013-06-18 00:21:00,64.2,63.0,29.91,WSW,244,0.0,0.0,96,0.00,,,0.00,Wunderground v.1.15,2013-06-18 04:21:00,
2013-06-18 00:22:00,64.2,63.0,29.90,WSW,244,0.0,0.0,96,0.00,,,0.00,Wunderground v.1.15,2013-06-18 04:22:00,
2013-06-18 00:23:00,64.2,63.0,29.90,WSW,244,0.0,0.0,96,0.00,,,0.00,Wunderground v.1.15,2013-06-18 04:23:00,
2013-06-18 00:25:00,64.2,63.0,29.90,WSW,244,2.0,2.0,96,0.00,,,0.00,Wunderground v.1.15,2013-06-18 04:25:00,
2013-06-18 00:29:00,64.2,63.0,29.89,WSW,244,0.0,2.0,96,0.00,,,0.00,Wunderground v.1.15,2013-06-18 04:29:00,
2013-06-18 00:30:00,64.2,63.0,29.89,WSW,244,0.0,0.0,96,0.00,,,0.00,Wunderground v.1.15,2013-06-18 04:30:00,
2013-06-18 00:32:00,64.2,63.0,29.89,WSW,244,0.0,0.0,96,0.00,,,0.00,Wunderground v.1.15,2013-06-18 04:32:00,
2013-06-18 00:37:00,64.2,63.0,29.88,WSW,244,0.0,0.0,96,0.00,,,0.00,Wunderground v.1.15,2013-06-18 04:37:00,
2013-06-18 00:38:00,64.2,63.0,29.88,WSW,244,0.0,0.0,96,0.00,,,0.00,Wunderground v.1.15,2013-06-18 04:38:00,
2013-06-18 00:40:00,64.2,63.0,29.88,WSW,244,0.0,0.0,96,0.00,,,0.00,Wunderground v.1.15,2013-06-18 04:40:00,
2013-06-18 00:43:00,64.2,63.0,29.88,WSW,244,0.0,0.0,96,0.00,,,0.00,Wunderground v.1.15,2013-06-18 04:43:00,
2013-06-18 00:44:00,64.2,63.0,29.88,WSW,244,0.0,0.0,96,0.00,,,0.00,Wunderground v.1.15,2013-06-18 04:44:00,
2013-06-18 00:48:00,64.2,63.0,29.88,WSW,244,0.0,0.0,96,0.00,,,0.00,Wunderground v.1.15,2013-06-18 04:48:00,
2013-06-18 00:50:00,64.2,63.0,29.87,WSW,244,2.0,2.0,96,0.00,,,0.00,Wunderground v.1.15,2013-06-18 04:50:00,
2013-06-18 00:51:00,64.2,63.0,29.87,WSW,244,3.0,3.0,96,0.00,,,0.00,Wunderground v.1.15,2013-06-18 04:51:00,
2013-06-18 00:52:00,64.2,63.0,29.87,WSW,244,1.0,3.0,96,0.00,,,0.00,Wunderground v.1.15,2013-06-18 04:52:00,
2013-06-18 00:54:00,64.2,63.0,29.87,WSW,244,0.0,3.0,96,0.00,,,0.00,Wunderground v.1.15,2013-06-18 04:54:00,
2013-06-18 00:57:00,64.1,62.9,29.86,WSW,244,3.0,3.0,96,0.00,,,0.00,Wunderground v.1.15,2013-06-18 04:57:00,
2013-06-18 00:59:00,64.1,62.9,29.87,SSE,167,4.0,7.0,96,0.00,,,0.00,Wunderground v.1.15,2013-06-18 04:59:00,
2013-06-18 01:00:00,64.1,62.9,29.86,SSE,165,4.0,4.0,96,0.00,,,0.00,Wunderground v.1.15,2013-06-18 05:00:00,
2013-06-18 01:01:00,64.1,62.9,29.86,SSE,155,2.0,4.0,96,0.00,,,0.00,Wunderground v.1.15,2013-06-18 05:01:00,
2013-06-18 01:05:00,64.0,62.8,29.86,SSE,149,3.0,10.0,96,0.00,,,0.00,Wunderground v.1.15,2013-06-18 05:05:00,
2013-06-18 01:06:00,64.0,62.8,29.86,SSE,149,4.0,10.0,96,0.00,,,0.00,Wunderground v.1.15,2013-06-18 05:06:00,
2013-06-18 01:07:00,64.0,62.8,29.86,SE,144,6.0,10.0,96,0.00,,,0.00,Wunderground v.1.15,2013-06-18 05:07:00,
2013-06-18 01:10:00,63.9,62.7,29.85,SE,144,3.0,3.0,96,0.00,,,0.00,Wunderground v.1.15,2013-06-18 05:10:00,
2013-06-18 01:12:00,63.9,62.7,29.85,SSE,154,6.0,6.0,96,0.00,,,0.00,Wunderground v.1.15,2013-06-18 05:12:00,
2013-06-18 01:13:00,63.8,62.6,29.85,SSE,158,6.0,6.0,96,0.00,,,0.00,Wunderground v.1.15,2013-06-18 05:13:00,
2013-06-18 01:15:00,63.8,62.6,29.85,SE,135,2.0,6.0,96,0.00,,,0.00,Wunderground v.1.15,2013-06-18 05:15:00,
2013-06-18 01:16:00,63.8,62.6,29.85,SE,142,2.0,6.0,96,0.00,,,0.00,Wunderground v.1.15,2013-06-18 05:16:00,
2013-06-18 01:19:00,63.7,62.5,29.85,SSE,147,5.0,6.0,96,0.00,,,0.00,Wunderground v.1.15,2013-06-18 05:19:00,
2013-06-18 01:21:00,63.6,62.4,29.85,SE,144,2.0,4.0,96,0.00,,,0.00,Wunderground v.1.15,2013-06-18 05:21:00,
2013-06-18 01:23:00,63.6,62.4,29.85,SE,146,2.0,4.0,96,0.00,,,0.00,Wunderground v.1.15,2013-06-18 05:23:00,
2013-06-18 01:27:00,63.5,62.3,29.85,SE,146,0.0,4.0,96,0.00,,,0.00,Wunderground v.1.15,2013-06-18 05:27:00,
2013-06-18 01:29:00,63.5,62.3,29.85,SSE,147,1.0,4.0,96,0.00,,,0.00,Wunderground v.1.15,2013-06-18 05:29:00,
2013-06-18 01:30:00,63.5,62.3,29.85,SSE,147,0.0,2.0,96,0.00,,,0.00,Wunderground v.1.15,2013-06-18 05:30:00,
2013-06-18 01:33:00,63.5,62.3,29.85,SSE,147,0.0,2.0,96,0.00,,,0.00,Wunderground v.1.15,2013-06-18 05:33:00,
2013-06-18 01:35:00,63.5,62.3,29.85,SSE,147,4.0,4.0,96,0.00,,,0.00,Wunderground v.1.15,2013-06-18 05:35:00,
2013-06-18 01:38:00,63.5,62.3,29.84,SSE,151,1.0,4.0,96,0.00,,,0.00,Wunderground v.1.15,2013-06-18 05:38:00,
2013-06-18 01:40:00,63.4,62.2,29.83,SSE,158,2.0,2.0,96,0.00,,,0.00,Wunderground v.1.15,2013-06-18 05:40:00,
2013-06-18 01:42:00,63.4,62.2,29.83,SSE,159,0.0,4.0,96,0.00,,,0.00,Wunderground v.1.15,2013-06-18 05:42:00,
2013-06-18 01:44:00,63.4,62.2,29.83,SSE,159,3.0,4.0,96,0.00,,,0.00,Wunderground v.1.15,2013-06-18 05:44:00,
2013-06-18 01:47:00,63.4,62.2,29.84,SSE,159,0.0,4.0,96,0.00,,,0.00,Wunderground v.1.15,2013-06-18 05:47:00,
2013-06-18 01:49:00,63.4,62.2,29.84,SSE,159,0.0,4.0,96,0.00,,,0.00,Wunderground v.1.15,2013-06-18 05:49:00,
2013-06-18 01:50:00,63.4,62.2,29.84,SSE,159,0.0,1.0,96,0.00,,,0.00,Wunderground v.1.15,2013-06-18 05:50:00,
2013-06-18 01:51:00,63.4,62.2,29.84,SSE,159,0.0,1.0,96,0.00,,,0.00,Wunderground v.1.15,2013-06-18 05:51:00,
2013-06-18 01:56:00,63.4,62.2,29.85,SSE,158,0.0,1.0,96,0.00,,,0.00,Wunderground v.1.15,2013-06-18 05:56:00,
2013-06-18 01:57:00,63.4,62.2,29.84,SSE,159,0.0,1.0,96,0.00,,,0.00,Wunderground v.1.15,2013-06-18 05:57:00,
2013-06-18 01:58:00,63.4,62.2,29.85,SSE,159,0.0,1.0,96,0.00,,,0.00,Wunderground v.1.15,2013-06-18 05:58:00,
2013-06-18 02:01:00,63.4,62.2,29.85,SSE,159,0.0,0.0,96,0.00,,,0.00,Wunderground v.1.15,2013-06-18 06:01:00,
2013-06-18 02:02:00,63.5,62.3,29.85,SSE,158,0.0,0.0,96,0.00,,,0.00,Wunderground v.1.15,2013-06-18 06:02:00,
2013-06-18 02:03:00,63.5,62.3,29.85,SSE,159,0.0,0.0,96,0.00,,,0.00,Wunderground v.1.15,2013-06-18 06:03:00,
2013-06-18 02:06:00,63.5,62.3,29.85,SSE,159,0.0,0.0,96,0.00,,,0.00,Wunderground v.1.15,2013-06-18 06:06:00,
2013-06-18 02:07:00,63.5,62.3,29.85,SSE,158,0.0,0.0,96,0.00,,,0.00,Wunderground v.1.15,2013-06-18 06:07:00,
2013-06-18 02:08:00,63.5,62.3,29.85,SSE,159,0.0,0.0,96,0.00,,,0.00,Wunderground v.1.15,2013-06-18 06:08:00,
2013-06-18 02:11:00,63.5,62.3,29.85,SSE,158,0.0,0.0,96,0.00,,,0.00,Wunderground v.1.15,2013-06-18 06:11:00,
2013-06-18 02:12:00,63.5,62.3,29.85,SSE,159,0.0,0.0,96,0.00,,,0.00,Wunderground v.1.15,2013-06-18 06:12:00,
2013-06-18 02:13:00,63.5,62.3,29.85,SSE,158,0.0,0.0,96,0.00,,,0.00,Wunderground v.1.15,2013-06-18 06:13:00,
2013-06-18 02:16:00,63.5,62.3,29.84,SSE,159,0.0,0.0,96,0.00,,,0.00,Wunderground v.1.15,2013-06-18 06:16:00,
2013-06-18 02:17:00,63.5,62.3,29.84,SSE,159,0.0,0.0,96,0.00,,,0.00,Wunderground v.1.15,2013-06-18 06:17:00,
2013-06-18 02:18:00,63.5,62.3,29.84,SSE,159,0.0,0.0,96,0.00,,,0.00,Wunderground v.1.15,2013-06-18 06:18:00,
2013-06-18 02:21:00,63.5,62.3,29.84,SSE,159,0.0,0.0,96,0.00,,,0.00,Wunderground v.1.15,2013-06-18 06:21:00,
2013-06-18 02:22:00,63.5,62.3,29.84,SSE,159,0.0,1.0,96,0.00,,,0.00,Wunderground v.1.15,2013-06-18 06:22:00,
2013-06-18 02:23:00,63.5,62.3,29.84,SSE,159,0.0,1.0,96,0.00,,,0.00,Wunderground v.1.15,2013-06-18 06:23:00,
2013-06-18 02:26:00,63.5,62.3,29.84,SSE,159,0.0,1.0,96,0.00,,,0.00,Wunderground v.1.15,2013-06-18 06:26:00,
2013-06-18 02:27:00,63.5,62.3,29.84,SSE,158,0.0,1.0,96,0.00,,,0.00,Wunderground v.1.15,2013-06-18 06:27:00,
2013-06-18 02:28:00,63.5,62.3,29.83,SSE,159,0.0,1.0,96,0.00,,,0.00,Wunderground v.1.15,2013-06-18 06:28:00,
2013-06-18 02:29:00,63.5,62.3,29.83,SSE,159,0.0,1.0,96,0.00,,,0.00,Wunderground v.1.15,2013-06-18 06:29:00,
2013-06-18 02:31:00,63.5,62.3,29.83,SSE,159,0.0,0.0,96,0.00,,,0.00,Wunderground v.1.15,2013-06-18 06:31:00,
2013-06-18 02:32:00,63.5,62.3,29.83,SSE,159,0.0,0.0,96,0.00,,,0.00,Wunderground v.1.15,2013-06-18 06:32:00,
2013-06-18 02:33:00,63.5,62.3,29.83,SSE,159,0.0,0.0,96,0.00,,,0.00,Wunderground v.1.15,2013-06-18 06:33:00,
2013-06-18 02:34:00,63.5,62.3,29.83,SSE,159,0.0,0.0,96,0.00,,,0.00,Wunderground v.1.15,2013-06-18 06:34:00,
2013-06-18 02:37:00,63.5,62.3,29.83,SSE,159,1.0,4.0,96,0.00,,,0.00,Wunderground v.1.15,2013-06-18 06:37:00,
2013-06-18 02:38:00,63.5,62.3,29.83,SSE,159,0.0,4.0,96,0.00,,,0.00,Wunderground v.1.15,2013-06-18 06:38:00,
2013-06-18 02:39:00,63.5,62.3,29.83,SSE,159,0.0,4.0,96,0.00,,,0.00,Wunderground v.1.15,2013-06-18 06:39:00,
2013-06-18 02:42:00,63.6,62.4,29.84,SSE,159,0.0,0.0,96,0.00,,,0.01,Wunderground v.1.15,2013-06-18 06:42:00,
2013-06-18 02:43:00,63.6,62.4,29.84,SSE,158,0.0,0.0,96,0.00,,,0.01,Wunderground v.1.15,2013-06-18 06:43:00,
2013-06-18 02:44:00,63.6,62.4,29.84,SSE,159,0.0,0.0,96,0.00,,,0.01,Wunderground v.1.15,2013-06-18 06:44:00,
2013-06-18 02:45:00,63.6,62.4,29.84,SSE,159,0.0,0.0,96,0.00,,,0.01,Wunderground v.1.15,2013-06-18 06:45:00,
2013-06-18 02:47:00,63.6,62.4,29.84,SSE,159,0.0,2.0,96,0.00,,,0.01,Wunderground v.1.15,2013-06-18 06:47:00,
2013-06-18 02:48:00,63.6,62.4,29.84,SSE,159,0.0,2.0,96,0.00,,,0.01,Wunderground v.1.15,2013-06-18 06:48:00,
2013-06-18 02:49:00,63.6,62.4,29.84,SSE,159,0.0,2.0,96,0.00,,,0.01,Wunderground v.1.15,2013-06-18 06:49:00,
2013-06-18 02:50:00,63.6,62.4,29.84,SSE,159,0.0,2.0,96,0.00,,,0.01,Wunderground v.1.15,2013-06-18 06:50:00,
2013-06-18 02:52:00,63.6,62.4,29.83,SSE,159,0.0,1.0,96,0.00,,,0.01,Wunderground v.1.15,2013-06-18 06:52:00,
2013-06-18 02:53:00,63.6,62.4,29.83,SSE,159,0.0,1.0,96,0.00,,,0.01,Wunderground v.1.15,2013-06-18 06:53:00,
2013-06-18 02:54:00,63.6,62.4,29.83,SSE,159,0.0,1.0,96,0.00,,,0.01,Wunderground v.1.15,2013-06-18 06:54:00,
2013-06-18 02:55:00,63.5,62.3,29.83,SSE,159,0.0,1.0,96,0.00,,,0.01,Wunderground v.1.15,2013-06-18 06:55:00,
2013-06-18 02:58:00,63.6,62.4,29.84,SSE,159,0.0,1.0,96,0.00,,,0.01,Wunderground v.1.15,2013-06-18 06:58:00,
2013-06-18 02:59:00,63.6,62.4,29.85,SSE,159,2.0,3.0,96,0.00,,,0.01,Wunderground v.1.15,2013-06-18 06:59:00,
2013-06-18 03:00:00,63.6,62.4,29.85,SSE,159,2.0,3.0,96,0.00,,,0.01,Wunderground v.1.15,2013-06-18 07:00:00,
2013-06-18 03:03:00,63.6,62.4,29.85,North,350,5.0,9.0,96,0.00,,,0.01,Wunderground v.1.15,2013-06-18 07:03:00,
2013-06-18 03:04:00,63.6,62.4,29.86,NNW,344,4.0,9.0,96,0.00,,,0.01,Wunderground v.1.15,2013-06-18 07:04:00,
2013-06-18 03:05:00,63.6,62.4,29.85,NNW,344,3.0,9.0,96,0.00,,,0.01,Wunderground v.1.15,2013-06-18 07:05:00,
2013-06-18 03:08:00,63.6,62.4,29.85,NNW,345,2.0,9.0,96,0.00,,,0.01,Wunderground v.1.15,2013-06-18 07:08:00,
2013-06-18 03:09:00,63.6,62.4,29.85,NNW,345,0.0,9.0,96,0.00,,,0.01,Wunderground v.1.15,2013-06-18 07:09:00,
2013-06-18 03:10:00,63.6,62.4,29.85,NNW,346,1.0,2.0,96,0.00,,,0.01,Wunderground v.1.15,2013-06-18 07:10:00,
2013-06-18 03:13:00,63.7,62.5,29.86,NNW,346,0.0,2.0,96,0.00,,,0.01,Wunderground v.1.15,2013-06-18 07:13:00,
2013-06-18 03:14:00,63.6,62.4,29.86,NNW,347,1.0,2.0,96,0.00,,,0.01,Wunderground v.1.15,2013-06-18 07:14:00,
2013-06-18 03:15:00,63.6,62.4,29.86,NNW,347,2.0,4.0,96,0.00,,,0.01,Wunderground v.1.15,2013-06-18 07:15:00,
2013-06-18 03:19:00,63.6,62.4,29.87,NNW,342,2.0,4.0,96,0.00,,,0.01,Wunderground v.1.15,2013-06-18 07:19:00,
2013-06-18 03:20:00,63.6,62.4,29.87,NNW,346,0.0,3.0,96,0.00,,,0.01,Wunderground v.1.15,2013-06-18 07:20:00,
2013-06-18 03:21:00,63.6,62.4,29.86,NNW,347,1.0,3.0,96,0.00,,,0.01,Wunderground v.1.15,2013-06-18 07:21:00,
2013-06-18 03:24:00,63.6,62.4,29.86,NNW,345,0.0,3.0,96,0.00,,,0.01,Wunderground v.1.15,2013-06-18 07:24:00,
2013-06-18 03:25:00,63.5,62.3,29.86,NNW,345,0.0,3.0,96,0.00,,,0.01,Wunderground v.1.15,2013-06-18 07:25:00,
2013-06-18 03:26:00,63.5,62.3,29.87,NNW,346,0.0,3.0,96,0.00,,,0.01,Wunderground v.1.15,2013-06-18 07:26:00,
2013-06-18 03:29:00,63.5,62.3,29.87,NNW,345,3.0,3.0,96,0.00,,,0.01,Wunderground v.1.15,2013-06-18 07:29:00,
2013-06-18 03:30:00,63.5,62.3,29.87,NNW,334,0.0,3.0,96,0.00,,,0.01,Wunderground v.1.15,2013-06-18 07:30:00,
2013-06-18 03:32:00,63.5,62.3,29.87,NNW,334,0.0,3.0,96,0.00,,,0.01,Wunderground v.1.15,2013-06-18 07:32:00,
2013-06-18 03:34:00,63.4,62.2,29.87,NNW,334,0.0,3.0,96,0.00,,,0.01,Wunderground v.1.15,2013-06-18 07:34:00,
2013-06-18 03:35:00,63.4,62.2,29.88,NNW,334,0.0,3.0,96,0.00,,,0.01,Wunderground v.1.15,2013-06-18 07:35:00,
2013-06-18 03:36:00,63.4,62.2,29.88,NNW,334,0.0,3.0,96,0.00,,,0.01,Wunderground v.1.15,2013-06-18 07:36:00,
2013-06-18 03:37:00,63.4,62.2,29.88,NNW,334,0.0,3.0,96,0.00,,,0.01,Wunderground v.1.15,2013-06-18 07:37:00,
2013-06-18 03:39:00,63.4,62.2,29.88,NNW,334,0.0,3.0,96,0.00,,,0.01,Wunderground v.1.15,2013-06-18 07:39:00,
2013-06-18 03:40:00,63.4,62.2,29.88,NNW,334,0.0,0.0,96,0.00,,,0.01,Wunderground v.1.15,2013-06-18 07:40:00,
2013-06-18 03:41:00,63.4,62.2,29.88,NNW,334,0.0,0.0,96,0.00,,,0.01,Wunderground v.1.15,2013-06-18 07:41:00,
2013-06-18 03:42:00,63.4,62.2,29.88,NNW,334,0.0,0.0,96,0.00,,,0.01,Wunderground v.1.15,2013-06-18 07:42:00,
2013-06-18 03:44:00,63.4,62.2,29.88,NNW,334,0.0,1.0,96,0.00,,,0.01,Wunderground v.1.15,2013-06-18 07:44:00,
2013-06-18 03:45:00,63.4,62.2,29.88,NNW,334,0.0,1.0,96,0.00,,,0.01,Wunderground v.1.15,2013-06-18 07:45:00,
2013-06-18 03:46:00,63.4,62.2,29.88,NNW,334,0.0,1.0,96,0.00,,,0.01,Wunderground v.1.15,2013-06-18 07:46:00,
2013-06-18 03:47:00,63.4,62.2,29.88,NNW,334,0.0,1.0,96,0.00,,,0.01,Wunderground v.1.15,2013-06-18 07:47:00,
2013-06-18 03:49:00,63.4,62.2,29.88,NNW,334,1.0,2.0,96,0.00,,,0.01,Wunderground v.1.15,2013-06-18 07:49:00,
2013-06-18 03:50:00,63.4,62.2,29.88,NNW,334,0.0,1.0,96,0.00,,,0.01,Wunderground v.1.15,2013-06-18 07:50:00,
2013-06-18 03:52:00,63.4,62.2,29.87,NNW,334,0.0,1.0,96,0.00,,,0.01,Wunderground v.1.15,2013-06-18 07:52:00,
2013-06-18 03:54:00,63.4,62.2,29.87,NNW,334,0.0,1.0,96,0.00,,,0.01,Wunderground v.1.15,2013-06-18 07:54:00,
2013-06-18 03:55:00,63.4,62.2,29.87,NNW,334,0.0,1.0,96,0.00,,,0.01,Wunderground v.1.15,2013-06-18 07:55:00,
2013-06-18 03:57:00,63.4,62.2,29.87,NNW,334,0.0,1.0,96,0.00,,,0.01,Wunderground v.1.15,2013-06-18 07:57:00,
2013-06-18 03:58:00,63.4,62.2,29.87,NNW,334,0.0,1.0,96,0.00,,,0.01,Wunderground v.1.15,2013-06-18 07:58:00,
2013-06-18 04:00:00,63.4,62.2,29.86,NNW,334,0.0,1.0,96,0.00,,,0.01,Wunderground v.1.15,2013-06-18 08:00:00,
2013-06-18 04:02:00,63.4,62.2,29.86,NNW,334,0.0,0.0,96,0.00,,,0.01,Wunderground v.1.15,2013-06-18 08:02:00,
2013-06-18 04:03:00,63.4,62.2,29.86,NNW,334,0.0,0.0,96,0.00,,,0.01,Wunderground v.1.15,2013-06-18 08:03:00,
2013-06-18 04:05:00,63.4,62.2,29.87,NNW,334,0.0,0.0,96,0.00,,,0.01,Wunderground v.1.15,2013-06-18 08:05:00,
2013-06-18 04:07:00,63.4,62.2,29.88,NNW,334,0.0,0.0,96,0.00,,,0.01,Wunderground v.1.15,2013-06-18 08:07:00,
2013-06-18 04:08:00,63.4,62.2,29.88,NNW,334,3.0,3.0,96,0.00,,,0.01,Wunderground v.1.15,2013-06-18 08:08:00,
2013-06-18 04:10:00,63.4,62.2,29.88,NNW,334,0.0,0.0,96,0.00,,,0.01,Wunderground v.1.15,2013-06-18 08:10:00,
2013-06-18 04:12:00,63.4,62.2,29.88,NNW,334,0.0,0.0,96,0.00,,,0.01,Wunderground v.1.15,2013-06-18 08:12:00,
2013-06-18 04:14:00,63.4,62.2,29.88,NNW,334,0.0,0.0,96,0.00,,,0.01,Wunderground v.1.15,2013-06-18 08:14:00,
2013-06-18 04:15:00,63.4,62.2,29.88,NNW,334,0.0,0.0,96,0.00,,,0.01,Wunderground v.1.15,2013-06-18 08:15:00,
2013-06-18 04:16:00,63.4,62.2,29.88,NNW,334,0.0,0.0,96,0.00,,,0.01,Wunderground v.1.15,2013-06-18 08:16:00,
2013-06-18 04:17:00,63.4,62.2,29.88,NNW,334,0.0,0.0,96,0.00,,,0.01,Wunderground v.1.15,2013-06-18 08:17:00,
2013-06-18 04:19:00,63.4,62.2,29.88,NNW,334,0.0,0.0,96,0.00,,,0.01,Wunderground v.1.15,2013-06-18 08:19:00,
2013-06-18 04:20:00,63.4,62.2,29.88,NNW,334,0.0,0.0,96,0.00,,,0.01,Wunderground v.1.15,2013-06-18 08:20:00,
2013-06-18 04:21:00,63.4,62.2,29.88,NNW,334,0.0,0.0,96,0.00,,,0.01,Wunderground v.1.15,2013-06-18 08:21:00,
2013-06-18 04:22:00,63.4,62.2,29.88,NNW,334,0.0,0.0,96,0.00,,,0.01,Wunderground v.1.15,2013-06-18 08:22:00,
2013-06-18 04:24:00,63.4,62.2,29.87,NNW,334,0.0,0.0,96,0.00,,,0.01,Wunderground v.1.15,2013-06-18 08:24:00,
2013-06-18 04:25:00,63.4,62.2,29.87,NNW,334,0.0,0.0,96,0.00,,,0.01,Wunderground v.1.15,2013-06-18 08:25:00,
2013-06-18 04:26:00,63.4,62.2,29.87,NNW,334,0.0,0.0,96,0.00,,,0.01,Wunderground v.1.15,2013-06-18 08:26:00,
2013-06-18 04:27:00,63.4,62.2,29.87,NNW,334,0.0,1.0,96,0.00,,,0.01,Wunderground v.1.15,2013-06-18 08:27:00,
2013-06-18 04:29:00,63.4,62.2,29.87,NNW,334,0.0,1.0,96,0.00,,,0.01,Wunderground v.1.15,2013-06-18 08:29:00,
2013-06-18 04:30:00,63.4,62.2,29.87,NNW,334,0.0,0.0,96,0.00,,,0.01,Wunderground v.1.15,2013-06-18 08:30:00,
2013-06-18 04:31:00,63.4,62.2,29.87,NNW,334,0.0,0.0,96,0.00,,,0.01,Wunderground v.1.15,2013-06-18 08:31:00,
2013-06-18 04:32:00,63.4,62.2,29.87,NNW,334,0.0,0.0,96,0.00,,,0.01,Wunderground v.1.15,2013-06-18 08:32:00,
2013-06-18 04:34:00,63.4,62.2,29.88,NNW,334,0.0,0.0,96,0.00,,,0.01,Wunderground v.1.15,2013-06-18 08:34:00,
2013-06-18 04:35:00,63.4,62.2,29.88,NNW,334,0.0,0.0,96,0.00,,,0.01,Wunderground v.1.15,2013-06-18 08:35:00,
2013-06-18 04:36:00,63.4,62.2,29.87,NNW,334,0.0,0.0,96,0.00,,,0.01,Wunderground v.1.15,2013-06-18 08:36:00,
2013-06-18 04:37:00,63.4,62.2,29.87,NNW,334,0.0,0.0,96,0.00,,,0.01,Wunderground v.1.15,2013-06-18 08:37:00,
2013-06-18 04:38:00,63.4,62.2,29.87,NNW,334,0.0,0.0,96,0.00,,,0.01,Wunderground v.1.15,2013-06-18 08:38:00,
2013-06-18 04:40:00,63.4,62.2,29.87,NNW,334,0.0,0.0,96,0.00,,,0.01,Wunderground v.1.15,2013-06-18 08:40:00,
2013-06-18 04:41:00,63.5,62.3,29.87,NNW,334,0.0,0.0,96,0.00,,,0.01,Wunderground v.1.15,2013-06-18 08:41:00,
2013-06-18 04:42:00,63.5,62.3,29.87,NNW,334,0.0,1.0,96,0.00,,,0.01,Wunderground v.1.15,2013-06-18 08:42:00,
2013-06-18 04:43:00,63.5,62.3,29.87,NNW,334,0.0,1.0,96,0.00,,,0.01,Wunderground v.1.15,2013-06-18 08:43:00,
2013-06-18 04:45:00,63.5,62.3,29.87,NNW,334,0.0,1.0,96,0.00,,,0.01,Wunderground v.1.15,2013-06-18 08:45:00,
2013-06-18 04:46:00,63.5,62.3,29.87,NNW,334,0.0,1.0,96,0.00,,,0.01,Wunderground v.1.15,2013-06-18 08:46:00,
2013-06-18 04:47:00,63.5,62.3,29.88,NNW,334,0.0,1.0,96,0.00,,,0.01,Wunderground v.1.15,2013-06-18 08:47:00,
2013-06-18 04:48:00,63.5,62.3,29.88,NNW,334,0.0,1.0,96,0.00,,,0.01,Wunderground v.1.15,2013-06-18 08:48:00,
2013-06-18 04:51:00,63.5,62.3,29.88,NNW,334,0.0,0.0,96,0.00,,,0.01,Wunderground v.1.15,2013-06-18 08:51:00,
2013-06-18 04:52:00,63.4,62.2,29.88,NNW,334,0.0,0.0,96,0.00,,,0.01,Wunderground v.1.15,2013-06-18 08:52:00,
2013-06-18 04:53:00,63.5,62.3,29.88,NNW,334,0.0,0.0,96,0.00,,,0.01,Wunderground v.1.15,2013-06-18 08:53:00,
2013-06-18 04:56:00,63.5,62.3,29.88,NNW,334,0.0,0.0,96,0.00,,,0.01,Wunderground v.1.15,2013-06-18 08:56:00,
2013-06-18 04:57:00,63.5,62.3,29.88,NNW,334,0.0,0.0,96,0.00,,,0.01,Wunderground v.1.15,2013-06-18 08:57:00,
2013-06-18 04:59:00,63.5,62.3,29.88,NNW,334,0.0,0.0,96,0.00,,,0.01,Wunderground v.1.15,2013-06-18 08:59:00,
2013-06-18 05:01:00,63.5,62.3,29.88,NNW,334,0.0,0.0,96,0.00,,,0.01,Wunderground v.1.15,2013-06-18 09:01:00,
2013-06-18 05:02:00,63.5,62.3,29.88,NNW,334,0.0,0.0,96,0.00,,,0.01,Wunderground v.1.15,2013-06-18 09:02:00,
2013-06-18 05:04:00,63.5,62.3,29.88,NNW,334,0.0,1.0,96,0.00,,,0.01,Wunderground v.1.15,2013-06-18 09:04:00,
2013-06-18 05:06:00,63.5,62.3,29.88,NNW,334,0.0,1.0,96,0.00,,,0.01,Wunderground v.1.15,2013-06-18 09:06:00,
2013-06-18 05:08:00,63.5,62.3,29.88,NNW,334,0.0,1.0,96,0.00,,,0.01,Wunderground v.1.15,2013-06-18 09:08:00,
2013-06-18 05:09:00,63.5,62.3,29.89,NNW,334,0.0,1.0,96,0.00,,,0.01,Wunderground v.1.15,2013-06-18 09:09:00,
2013-06-18 05:11:00,63.5,62.6,29.89,NNW,334,0.0,3.0,97,0.00,,,0.01,Wunderground v.1.15,2013-06-18 09:11:00,
2013-06-18 05:13:00,63.5,62.6,29.89,NNW,334,0.0,3.0,97,0.00,,,0.01,Wunderground v.1.15,2013-06-18 09:13:00,
2013-06-18 05:14:00,63.5,62.6,29.89,NNW,334,0.0,3.0,97,0.00,,,0.01,Wunderground v.1.15,2013-06-18 09:14:00,
2013-06-18 05:16:00,63.5,62.6,29.89,NNW,334,0.0,3.0,97,0.00,,,0.01,Wunderground v.1.15,2013-06-18 09:16:00,
2013-06-18 05:17:00,63.5,62.6,29.89,NNW,334,0.0,3.0,97,0.00,,,0.01,Wunderground v.1.15,2013-06-18 09:17:00,
2013-06-18 05:18:00,63.5,62.6,29.89,NNW,334,0.0,3.0,97,0.00,,,0.01,Wunderground v.1.15,2013-06-18 09:18:00,
2013-06-18 05:19:00,63.5,62.6,29.89,NNW,334,0.0,3.0,97,0.00,,,0.01,Wunderground v.1.15,2013-06-18 09:19:00,
2013-06-18 05:20:00,63.5,62.6,29.89,NNW,334,0.0,0.0,97,0.00,,,0.01,Wunderground v.1.15,2013-06-18 09:20:00,
2013-06-18 05:22:00,63.5,62.6,29.89,NNW,334,0.0,0.0,97,0.00,,,0.01,Wunderground v.1.15,2013-06-18 09:22:00,
2013-06-18 05:23:00,63.5,62.6,29.89,NNW,334,0.0,0.0,97,0.00,,,0.01,Wunderground v.1.15,2013-06-18 09:23:00,
2013-06-18 05:24:00,63.5,62.6,29.89,NNW,334,0.0,0.0,97,0.00,,,0.01,Wunderground v.1.15,2013-06-18 09:24:00,
2013-06-18 05:25:00,63.4,62.5,29.89,NNW,334,0.0,0.0,97,0.00,,,0.01,Wunderground v.1.15,2013-06-18 09:25:00,
2013-06-18 05:27:00,63.4,62.5,29.89,NNW,334,0.0,0.0,97,0.00,,,0.01,Wunderground v.1.15,2013-06-18 09:27:00,
2013-06-18 05:28:00,63.4,62.5,29.88,NNW,334,0.0,0.0,97,0.00,,,0.01,Wunderground v.1.15,2013-06-18 09:28:00,
2013-06-18 05:29:00,63.4,62.5,29.88,NNW,334,0.0,0.0,97,0.00,,,0.01,Wunderground v.1.15,2013-06-18 09:29:00,
2013-06-18 05:30:00,63.4,62.5,29.88,NNW,334,0.0,0.0,97,0.00,,,0.01,Wunderground v.1.15,2013-06-18 09:30:00,
2013-06-18 05:32:00,63.4,62.5,29.88,NNW,334,0.0,0.0,97,0.00,,,0.01,Wunderground v.1.15,2013-06-18 09:32:00,
2013-06-18 05:33:00,63.4,62.5,29.88,NNW,334,0.0,0.0,97,0.00,,,0.01,Wunderground v.1.15,2013-06-18 09:33:00,
2013-06-18 05:34:00,63.4,62.5,29.88,NNW,334,0.0,0.0,97,0.00,,,0.01,Wunderground v.1.15,2013-06-18 09:34:00,
2013-06-18 05:35:00,63.4,62.5,29.89,NNW,334,0.0,0.0,97,0.00,,,0.01,Wunderground v.1.15,2013-06-18 09:35:00,
2013-06-18 05:37:00,63.4,62.5,29.88,NNW,334,0.0,0.0,97,0.00,,,0.01,Wunderground v.1.15,2013-06-18 09:37:00,
2013-06-18 05:38:00,63.4,62.5,29.88,NNW,334,0.0,0.0,97,0.00,,,0.01,Wunderground v.1.15,2013-06-18 09:38:00,
2013-06-18 05:39:00,63.4,62.5,29.89,NNW,334,0.0,0.0,97,0.00,,,0.01,Wunderground v.1.15,2013-06-18 09:39:00,
2013-06-18 05:40:00,63.3,62.4,29.89,NNW,334,0.0,0.0,97,0.00,,,0.01,Wunderground v.1.15,2013-06-18 09:40:00,
2013-06-18 05:43:00,63.3,62.4,29.89,NNW,334,0.0,0.0,97,0.00,,,0.01,Wunderground v.1.15,2013-06-18 09:43:00,
2013-06-18 05:44:00,63.4,62.5,29.89,NNW,334,0.0,0.0,97,0.00,,,0.01,Wunderground v.1.15,2013-06-18 09:44:00,
2013-06-18 05:46:00,63.3,62.4,29.89,NNW,334,0.0,0.0,97,0.00,,,0.01,Wunderground v.1.15,2013-06-18 09:46:00,
2013-06-18 05:48:00,63.3,62.4,29.89,NNW,334,0.0,0.0,97,0.00,,,0.01,Wunderground v.1.15,2013-06-18 09:48:00,
2013-06-18 05:49:00,63.3,62.4,29.89,NNW,334,0.0,0.0,97,0.00,,,0.01,Wunderground v.1.15,2013-06-18 09:49:00,
2013-06-18 05:51:00,63.3,62.4,29.90,NNW,334,0.0,0.0,97,0.00,,,0.01,Wunderground v.1.15,2013-06-18 09:51:00,
2013-06-18 05:53:00,63.3,62.4,29.90,NNW,334,0.0,0.0,97,0.00,,,0.01,Wunderground v.1.15,2013-06-18 09:53:00,
2013-06-18 05:54:00,63.3,62.4,29.90,NNW,334,0.0,0.0,97,0.00,,,0.01,Wunderground v.1.15,2013-06-18 09:54:00,
2013-06-18 05:55:00,63.3,62.4,29.90,NNW,334,0.0,0.0,97,0.00,,,0.01,Wunderground v.1.15,2013-06-18 09:55:00,
2013-06-18 05:56:00,63.3,62.4,29.90,NNW,334,0.0,0.0,97,0.00,,,0.01,Wunderground v.1.15,2013-06-18 09:56:00,
2013-06-18 05:58:00,63.4,62.5,29.90,NNW,334,0.0,0.0,97,0.00,,,0.01,Wunderground v.1.15,2013-06-18 09:58:00,
2013-06-18 05:59:00,63.4,62.5,29.90,NNW,334,0.0,0.0,97,0.00,,,0.01,Wunderground v.1.15,2013-06-18 09:59:00,
2013-06-18 06:00:00,63.4,62.5,29.90,NNW,334,0.0,0.0,97,0.00,,,0.01,Wunderground v.1.15,2013-06-18 10:00:00,
2013-06-18 06:01:00,63.4,62.5,29.90,NNW,334,0.0,0.0,97,0.00,,,0.01,Wunderground v.1.15,2013-06-18 10:01:00,
2013-06-18 06:04:00,63.4,62.5,29.90,NNW,334,0.0,0.0,97,0.00,,,0.01,Wunderground v.1.15,2013-06-18 10:04:00,
2013-06-18 06:05:00,63.4,62.5,29.90,NNW,334,0.0,0.0,97,0.00,,,0.01,Wunderground v.1.15,2013-06-18 10:05:00,
2013-06-18 06:07:00,63.4,62.5,29.90,NNW,334,0.0,0.0,97,0.00,,,0.01,Wunderground v.1.15,2013-06-18 10:07:00,
2013-06-18 06:09:00,63.5,62.6,29.90,NNW,334,0.0,0.0,97,0.00,,,0.01,Wunderground v.1.15,2013-06-18 10:09:00,
2013-06-18 06:10:00,63.4,62.5,29.90,NNW,334,0.0,0.0,97,0.00,,,0.01,Wunderground v.1.15,2013-06-18 10:10:00,
2013-06-18 06:12:00,63.5,62.6,29.90,NNW,334,0.0,0.0,97,0.00,,,0.01,Wunderground v.1.15,2013-06-18 10:12:00,
2013-06-18 06:14:00,63.5,62.6,29.90,NNW,334,0.0,0.0,97,0.00,,,0.01,Wunderground v.1.15,2013-06-18 10:14:00,
2013-06-18 06:15:00,63.5,62.6,29.91,NNW,334,0.0,0.0,97,0.00,,,0.01,Wunderground v.1.15,2013-06-18 10:15:00,
2013-06-18 06:17:00,63.4,62.5,29.90,NNW,334,0.0,0.0,97,0.00,,,0.01,Wunderground v.1.15,2013-06-18 10:17:00,
2013-06-18 06:19:00,63.5,62.6,29.91,NNW,334,0.0,0.0,97,0.00,,,0.01,Wunderground v.1.15,2013-06-18 10:19:00,
2013-06-18 06:20:00,63.5,62.6,29.91,NNW,334,0.0,0.0,97,0.00,,,0.01,Wunderground v.1.15,2013-06-18 10:20:00,
2013-06-18 06:23:00,63.5,62.6,29.91,NNW,334,0.0,0.0,97,0.00,,,0.01,Wunderground v.1.15,2013-06-18 10:23:00,
2013-06-18 06:24:00,63.5,62.6,29.91,NNW,334,0.0,0.0,97,0.00,,,0.01,Wunderground v.1.15,2013-06-18 10:24:00,
2013-06-18 06:25:00,63.5,62.6,29.91,NNW,334,0.0,0.0,97,0.00,,,0.01,Wunderground v.1.15,2013-06-18 10:25:00,
2013-06-18 06:28:00,63.5,62.6,29.91,NNW,334,0.0,0.0,97,0.00,,,0.01,Wunderground v.1.15,2013-06-18 10:28:00,
2013-06-18 06:29:00,63.5,62.6,29.91,NNW,334,0.0,0.0,97,0.00,,,0.01,Wunderground v.1.15,2013-06-18 10:29:00,
2013-06-18 06:30:00,63.5,62.6,29.91,NNW,334,0.0,0.0,97,0.00,,,0.01,Wunderground v.1.15,2013-06-18 10:30:00,
2013-06-18 06:33:00,63.5,62.6,29.91,NNW,334,0.0,0.0,97,0.00,,,0.01,Wunderground v.1.15,2013-06-18 10:33:00,
2013-06-18 06:34:00,63.5,62.6,29.91,NNW,334,0.0,0.0,97,0.00,,,0.01,Wunderground v.1.15,2013-06-18 10:34:00,
2013-06-18 06:35:00,63.5,62.6,29.91,NNW,334,0.0,0.0,97,0.00,,,0.01,Wunderground v.1.15,2013-06-18 10:35:00,
2013-06-18 06:36:00,63.5,62.6,29.91,NNW,334,0.0,0.0,97,0.00,,,0.01,Wunderground v.1.15,2013-06-18 10:36:00,
2013-06-18 06:39:00,63.6,62.7,29.91,NNW,334,0.0,0.0,97,0.00,,,0.01,Wunderground v.1.15,2013-06-18 10:39:00,
2013-06-18 06:40:00,63.6,62.7,29.91,NNW,334,0.0,0.0,97,0.00,,,0.01,Wunderground v.1.15,2013-06-18 10:40:00,
2013-06-18 06:41:00,63.6,62.7,29.91,NNW,334,0.0,0.0,97,0.00,,,0.01,Wunderground v.1.15,2013-06-18 10:41:00,
2013-06-18 06:44:00,63.6,62.7,29.91,NNW,334,0.0,0.0,97,0.00,,,0.01,Wunderground v.1.15,2013-06-18 10:44:00,
2013-06-18 06:46:00,63.6,62.7,29.91,NNW,334,0.0,0.0,97,0.00,,,0.01,Wunderground v.1.15,2013-06-18 10:46:00,
2013-06-18 06:49:00,63.7,62.8,29.92,NNW,334,0.0,0.0,97,0.00,,,0.01,Wunderground v.1.15,2013-06-18 10:49:00,
2013-06-18 06:51:00,63.7,62.8,29.92,NNW,334,0.0,0.0,97,0.00,,,0.01,Wunderground v.1.15,2013-06-18 10:51:00,
2013-06-18 06:52:00,63.7,62.8,29.92,NNW,334,0.0,0.0,97,0.00,,,0.01,Wunderground v.1.15,2013-06-18 10:52:00,
2013-06-18 06:54:00,63.7,62.8,29.91,NNW,334,0.0,0.0,97,0.00,,,0.01,Wunderground v.1.15,2013-06-18 10:54:00,
2013-06-18 06:56:00,63.8,62.9,29.91,NNW,334,0.0,0.0,97,0.00,,,0.01,Wunderground v.1.15,2013-06-18 10:56:00,
2013-06-18 06:57:00,63.8,62.9,29.91,NNW,334,0.0,0.0,97,0.00,,,0.01,Wunderground v.1.15,2013-06-18 10:57:00,
2013-06-18 06:59:00,63.8,62.9,29.91,NNW,334,2.0,3.0,97,0.00,,,0.01,Wunderground v.1.15,2013-06-18 10:59:00,
2013-06-18 07:01:00,63.8,62.9,29.91,NNW,334,0.0,3.0,97,0.00,,,0.01,Wunderground v.1.15,2013-06-18 11:01:00,
2013-06-18 07:02:00,63.9,63.0,29.91,NNW,334,4.0,4.0,97,0.00,,,0.01,Wunderground v.1.15,2013-06-18 11:02:00,
2013-06-18 07:04:00,63.9,63.0,29.91,NNW,334,0.0,4.0,97,0.00,,,0.01,Wunderground v.1.15,2013-06-18 11:04:00,
2013-06-18 07:06:00,63.9,63.0,29.91,NNW,334,0.0,4.0,97,0.00,,,0.01,Wunderground v.1.15,2013-06-18 11:06:00,
2013-06-18 07:07:00,63.9,63.0,29.91,NNW,334,0.0,4.0,97,0.00,,,0.01,Wunderground v.1.15,2013-06-18 11:07:00,
2013-06-18 07:09:00,63.9,63.0,29.91,NNW,334,0.0,4.0,97,0.00,,,0.01,Wunderground v.1.15,2013-06-18 11:09:00,
2013-06-18 07:12:00,63.9,63.0,29.91,NNW,334,1.0,1.0,97,0.00,,,0.01,Wunderground v.1.15,2013-06-18 11:12:00,
2013-06-18 07:13:00,63.9,63.0,29.91,NNW,334,1.0,1.0,97,0.00,,,0.01,Wunderground v.1.15,2013-06-18 11:13:00,
2013-06-18 07:14:00,64.0,63.1,29.91,NNW,334,1.0,2.0,97,0.00,,,0.01,Wunderground v.1.15,2013-06-18 11:14:00,
2013-06-18 07:15:00,63.9,63.0,29.91,NNW,334,1.0,2.0,97,0.00,,,0.01,Wunderground v.1.15,2013-06-18 11:15:00,
2013-06-18 07:17:00,64.0,63.1,29.91,NNW,334,0.0,2.0,97,0.00,,,0.01,Wunderground v.1.15,2013-06-18 11:17:00,
2013-06-18 07:18:00,64.0,63.1,29.91,NNW,334,0.0,2.0,97,0.00,,,0.01,Wunderground v.1.15,2013-06-18 11:18:00,
2013-06-18 07:19:00,64.0,63.1,29.91,NNW,334,0.0,2.0,97,0.00,,,0.01,Wunderground v.1.15,2013-06-18 11:19:00,
2013-06-18 07:20:00,64.0,63.1,29.91,NNW,334,0.0,2.0,97,0.00,,,0.01,Wunderground v.1.15,2013-06-18 11:20:00,
2013-06-18 07:22:00,64.0,63.1,29.91,NNW,334,0.0,0.0,97,0.00,,,0.01,Wunderground v.1.15,2013-06-18 11:22:00,
2013-06-18 07:23:00,64.0,63.1,29.91,NNW,334,0.0,0.0,97,0.00,,,0.01,Wunderground v.1.15,2013-06-18 11:23:00,
2013-06-18 07:25:00,64.1,63.2,29.91,NNW,334,0.0,0.0,97,0.00,,,0.01,Wunderground v.1.15,2013-06-18 11:25:00,
2013-06-18 07:27:00,64.1,63.2,29.90,NNW,334,0.0,1.0,97,0.00,,,0.01,Wunderground v.1.15,2013-06-18 11:27:00,
2013-06-18 07:28:00,64.1,63.2,29.90,NNW,334,0.0,1.0,97,0.00,,,0.01,Wunderground v.1.15,2013-06-18 11:28:00,
2013-06-18 07:30:00,64.1,63.2,29.90,NNW,334,0.0,0.0,97,0.00,,,0.01,Wunderground v.1.15,2013-06-18 11:30:00,
2013-06-18 07:32:00,64.1,63.2,29.90,NNW,334,0.0,0.0,97,0.00,,,0.01,Wunderground v.1.15,2013-06-18 11:32:00,
2013-06-18 07:33:00,64.1,63.2,29.90,NNW,334,0.0,0.0,97,0.00,,,0.01,Wunderground v.1.15,2013-06-18 11:33:00,
2013-06-18 07:35:00,64.1,63.2,29.91,NNW,334,0.0,0.0,97,0.00,,,0.01,Wunderground v.1.15,2013-06-18 11:35:00,
2013-06-18 07:37:00,64.1,63.2,29.91,NNW,334,0.0,0.0,97,0.00,,,0.01,Wunderground v.1.15,2013-06-18 11:37:00,
2013-06-18 07:38:00,64.1,63.2,29.91,NNW,334,0.0,0.0,97,0.00,,,0.01,Wunderground v.1.15,2013-06-18 11:38:00,
2013-06-18 07:40:00,64.2,63.3,29.92,NNW,334,0.0,0.0,97,0.00,,,0.01,Wunderground v.1.15,2013-06-18 11:40:00,
2013-06-18 07:43:00,64.3,63.4,29.92,NNW,334,0.0,0.0,97,0.00,,,0.01,Wunderground v.1.15,2013-06-18 11:43:00,
2013-06-18 07:44:00,64.4,63.5,29.92,SE,143,0.0,0.0,97,0.00,,,0.01,Wunderground v.1.15,2013-06-18 11:44:00,
2013-06-18 07:45:00,64.4,63.5,29.92,SE,143,0.0,0.0,97,0.00,,,0.01,Wunderground v.1.15,2013-06-18 11:45:00,
2013-06-18 07:46:00,64.5,63.6,29.92,SE,143,0.0,0.0,97,0.00,,,0.01,Wunderground v.1.15,2013-06-18 11:46:00,
2013-06-18 07:48:00,64.5,63.6,29.92,SE,143,0.0,1.0,97,0.00,,,0.01,Wunderground v.1.15,2013-06-18 11:48:00,
2013-06-18 07:50:00,64.5,63.6,29.92,SE,143,0.0,0.0,97,0.00,,,0.01,Wunderground v.1.15,2013-06-18 11:50:00,
2013-06-18 07:51:00,64.5,63.6,29.92,SE,143,0.0,0.0,97,0.00,,,0.01,Wunderground v.1.15,2013-06-18 11:51:00,
2013-06-18 07:53:00,64.6,63.7,29.93,SE,143,0.0,0.0,97,0.00,,,0.01,Wunderground v.1.15,2013-06-18 11:53:00,
2013-06-18 07:54:00,64.6,63.7,29.93,SE,143,0.0,0.0,97,0.00,,,0.01,Wunderground v.1.15,2013-06-18 11:54:00,
2013-06-18 07:55:00,64.7,63.8,29.93,SE,143,0.0,0.0,97,0.00,,,0.01,Wunderground v.1.15,2013-06-18 11:55:00,
2013-06-18 07:56:00,64.7,63.8,29.93,SE,143,0.0,0.0,97,0.00,,,0.01,Wunderground v.1.15,2013-06-18 11:56:00,
2013-06-18 07:57:00,64.8,63.9,29.93,SE,143,0.0,0.0,97,0.00,,,0.01,Wunderground v.1.15,2013-06-18 11:57:00,
2013-06-18 07:59:00,64.9,64.0,29.93,SE,143,0.0,1.0,97,0.00,,,0.01,Wunderground v.1.15,2013-06-18 11:59:00,
2013-06-18 08:01:00,65.0,64.1,29.93,SE,143,0.0,0.0,97,0.00,,,0.01,Wunderground v.1.15,2013-06-18 12:01:00,
2013-06-18 08:02:00,65.1,64.2,29.92,SE,143,0.0,0.0,97,0.00,,,0.01,Wunderground v.1.15,2013-06-18 12:02:00,
2013-06-18 08:04:00,65.3,64.4,29.92,SE,143,0.0,1.0,97,0.00,,,0.01,Wunderground v.1.15,2013-06-18 12:04:00,
2013-06-18 08:06:00,65.4,64.5,29.92,SE,143,0.0,1.0,97,0.00,,,0.01,Wunderground v.1.15,2013-06-18 12:06:00,
2013-06-18 08:07:00,65.6,64.7,29.92,SE,143,0.0,1.0,97,0.00,,,0.01,Wunderground v.1.15,2013-06-18 12:07:00,
2013-06-18 08:09:00,66.0,65.1,29.92,SE,143,0.0,1.0,97,0.00,,,0.01,Wunderground v.1.15,2013-06-18 12:09:00,
2013-06-18 08:11:00,66.4,65.5,29.92,SSE,150,0.0,0.0,97,0.00,,,0.01,Wunderground v.1.15,2013-06-18 12:11:00,
2013-06-18 08:12:00,66.5,65.6,29.92,South,188,0.0,0.0,97,0.00,,,0.01,Wunderground v.1.15,2013-06-18 12:12:00,
2013-06-18 08:14:00,66.5,65.6,29.92,South,188,0.0,0.0,97,0.00,,,0.01,Wunderground v.1.15,2013-06-18 12:14:00,
2013-06-18 08:16:00,66.6,65.7,29.92,South,188,0.0,1.0,97,0.00,,,0.01,Wunderground v.1.15,2013-06-18 12:16:00,
2013-06-18 08:17:00,66.5,65.6,29.92,South,188,0.0,1.0,97,0.00,,,0.01,Wunderground v.1.15,2013-06-18 12:17:00,
2013-06-18 08:19:00,66.5,65.6,29.92,NW,322,0.0,1.0,97,0.00,,,0.01,Wunderground v.1.15,2013-06-18 12:19:00,
2013-06-18 08:20:00,66.5,65.6,29.92,North,4,0.0,1.0,97,0.00,,,0.01,Wunderground v.1.15,2013-06-18 12:20:00,
2013-06-18 08:21:00,66.4,65.5,29.92,North,8,0.0,1.0,97,0.00,,,0.01,Wunderground v.1.15,2013-06-18 12:21:00,
2013-06-18 08:22:00,66.3,65.4,29.92,North,8,0.0,1.0,97,0.00,,,0.01,Wunderground v.1.15,2013-06-18 12:22:00,
2013-06-18 08:24:00,66.2,65.3,29.92,North,8,0.0,1.0,97,0.00,,,0.01,Wunderground v.1.15,2013-06-18 12:24:00,
2013-06-18 08:25:00,66.2,65.3,29.92,North,8,0.0,1.0,97,0.00,,,0.01,Wunderground v.1.15,2013-06-18 12:25:00,
2013-06-18 08:26:00,66.2,65.3,29.92,North,8,0.0,1.0,97,0.00,,,0.01,Wunderground v.1.15,2013-06-18 12:26:00,
2013-06-18 08:27:00,66.2,65.3,29.92,North,8,0.0,1.0,97,0.00,,,0.01,Wunderground v.1.15,2013-06-18 12:27:00,
2013-06-18 08:30:00,66.3,65.4,29.92,North,8,0.0,1.0,97,0.00,,,0.01,Wunderground v.1.15,2013-06-18 12:30:00,
2013-06-18 08:31:00,66.4,65.5,29.92,North,8,0.0,1.0,97,0.00,,,0.01,Wunderground v.1.15,2013-06-18 12:31:00,
2013-06-18 08:32:00,66.4,65.5,29.92,NW,311,2.0,2.0,97,0.00,,,0.01,Wunderground v.1.15,2013-06-18 12:32:00,
2013-06-18 08:33:00,66.4,65.5,29.92,NW,315,2.0,4.0,97,0.00,,,0.01,Wunderground v.1.15,2013-06-18 12:33:00,
2013-06-18 08:35:00,66.5,65.6,29.92,NW,318,0.0,4.0,97,0.00,,,0.01,Wunderground v.1.15,2013-06-18 12:35:00,
2013-06-18 08:36:00,66.5,65.6,29.92,NW,318,0.0,4.0,97,0.00,,,0.01,Wunderground v.1.15,2013-06-18 12:36:00,
2013-06-18 08:37:00,66.7,65.8,29.92,NW,318,0.0,4.0,97,0.00,,,0.01,Wunderground v.1.15,2013-06-18 12:37:00,
2013-06-18 08:38:00,66.7,65.8,29.92,NW,318,0.0,4.0,97,0.00,,,0.01,Wunderground v.1.15,2013-06-18 12:38:00,
2013-06-18 08:40:00,67.0,66.1,29.92,NW,322,0.0,1.0,97,0.00,,,0.01,Wunderground v.1.15,2013-06-18 12:40:00,
2013-06-18 08:41:00,67.0,66.1,29.92,NW,322,0.0,1.0,97,0.00,,,0.01,Wunderground v.1.15,2013-06-18 12:41:00,
2013-06-18 08:42:00,67.1,66.2,29.93,NNW,329,0.0,3.0,97,0.00,,,0.01,Wunderground v.1.15,2013-06-18 12:42:00,
2013-06-18 08:43:00,67.0,66.1,29.93,NNW,328,0.0,3.0,97,0.00,,,0.01,Wunderground v.1.15,2013-06-18 12:43:00,
2013-06-18 08:45:00,67.0,66.1,29.93,NNW,341,2.0,3.0,97,0.00,,,0.01,Wunderground v.1.15,2013-06-18 12:45:00,
2013-06-18 08:46:00,67.1,66.2,29.93,NNW,341,0.0,3.0,97,0.00,,,0.01,Wunderground v.1.15,2013-06-18 12:46:00,
2013-06-18 08:47:00,67.1,66.2,29.93,NNW,341,1.0,3.0,97,0.00,,,0.01,Wunderground v.1.15,2013-06-18 12:47:00,
2013-06-18 08:48:00,67.2,66.3,29.93,NNW,341,0.0,3.0,97,0.00,,,0.01,Wunderground v.1.15,2013-06-18 12:48:00,
2013-06-18 08:50:00,67.4,66.5,29.93,NNW,342,0.0,1.0,97,0.00,,,0.01,Wunderground v.1.15,2013-06-18 12:50:00,
2013-06-18 08:51:00,67.4,66.5,29.93,NNW,342,0.0,1.0,97,0.00,,,0.01,Wunderground v.1.15,2013-06-18 12:51:00,
2013-06-18 08:52:00,67.4,66.5,29.93,North,350,0.0,3.0,97,0.00,,,0.01,Wunderground v.1.15,2013-06-18 12:52:00,
2013-06-18 08:53:00,67.4,66.5,29.93,North,350,1.0,3.0,97,0.00,,,0.01,Wunderground v.1.15,2013-06-18 12:53:00,
2013-06-18 08:56:00,67.7,66.8,29.93,North,3,1.0,5.0,97,0.00,,,0.01,Wunderground v.1.15,2013-06-18 12:56:00,
2013-06-18 08:57:00,67.7,66.8,29.93,North,3,0.0,5.0,97,0.00,,,0.01,Wunderground v.1.15,2013-06-18 12:57:00,
2013-06-18 08:58:00,67.8,66.9,29.93,North,3,0.0,5.0,97,0.00,,,0.01,Wunderground v.1.15,2013-06-18 12:58:00,
2013-06-18 09:01:00,67.9,67.0,29.93,North,3,0.0,1.0,97,0.00,,,0.01,Wunderground v.1.15,2013-06-18 13:01:00,
2013-06-18 09:02:00,68.0,66.8,29.94,North,3,0.0,1.0,96,0.00,,,0.01,Wunderground v.1.15,2013-06-18 13:02:00,
2013-06-18 09:03:00,68.1,66.9,29.93,North,3,2.0,3.0,96,0.00,,,0.01,Wunderground v.1.15,2013-06-18 13:03:00,
2013-06-18 09:06:00,68.3,67.1,29.93,North,358,0.0,4.0,96,0.00,,,0.01,Wunderground v.1.15,2013-06-18 13:06:00,
2013-06-18 09:07:00,68.3,67.1,29.93,North,357,1.0,4.0,96,0.00,,,0.01,Wunderground v.1.15,2013-06-18 13:07:00,
2013-06-18 09:08:00,68.3,67.1,29.93,North,355,3.0,5.0,96,0.00,,,0.01,Wunderground v.1.15,2013-06-18 13:08:00,
2013-06-18 09:11:00,68.3,67.1,29.94,North,352,1.0,3.0,96,0.00,,,0.01,Wunderground v.1.15,2013-06-18 13:11:00,
2013-06-18 09:12:00,68.2,67.0,29.94,North,351,1.0,3.0,96,0.00,,,0.01,Wunderground v.1.15,2013-06-18 13:12:00,
2013-06-18 09:13:00,68.3,66.8,29.94,NNW,345,0.0,3.0,95,0.00,,,0.01,Wunderground v.1.15,2013-06-18 13:13:00,
2013-06-18 09:14:00,68.2,66.7,29.94,NNW,345,0.0,3.0,95,0.00,,,0.01,Wunderground v.1.15,2013-06-18 13:14:00,
2013-06-18 09:16:00,68.3,66.8,29.93,North,349,0.0,3.0,95,0.00,,,0.01,Wunderground v.1.15,2013-06-18 13:16:00,
2013-06-18 09:18:00,68.4,66.9,29.93,NNW,344,0.0,3.0,95,0.00,,,0.01,Wunderground v.1.15,2013-06-18 13:18:00,
2013-06-18 09:19:00,68.5,67.0,29.93,NW,325,0.0,3.0,95,0.00,,,0.01,Wunderground v.1.15,2013-06-18 13:19:00,
2013-06-18 09:21:00,68.6,67.1,29.93,NW,324,0.0,0.0,95,0.00,,,0.01,Wunderground v.1.15,2013-06-18 13:21:00,
2013-06-18 09:23:00,68.7,66.9,29.93,NW,323,0.0,1.0,94,0.00,,,0.01,Wunderground v.1.15,2013-06-18 13:23:00,
2013-06-18 09:24:00,68.8,67.0,29.93,NW,324,0.0,1.0,94,0.00,,,0.01,Wunderground v.1.15,2013-06-18 13:24:00,
2013-06-18 09:26:00,69.0,67.2,29.93,NW,323,0.0,1.0,94,0.00,,,0.01,Wunderground v.1.15,2013-06-18 13:26:00,
2013-06-18 09:28:00,69.3,67.5,29.93,NW,323,0.0,2.0,94,0.00,,,0.01,Wunderground v.1.15,2013-06-18 13:28:00,
2013-06-18 09:29:00,69.3,67.5,29.93,NW,324,0.0,2.0,94,0.00,,,0.01,Wunderground v.1.15,2013-06-18 13:29:00,
2013-06-18 09:30:00,69.4,67.0,29.93,NW,323,0.0,0.0,92,0.00,,,0.01,Wunderground v.1.15,2013-06-18 13:30:00,
2013-06-18 09:31:00,69.4,67.0,29.93,NNW,328,0.0,2.0,92,0.00,,,0.01,Wunderground v.1.15,2013-06-18 13:31:00,
2013-06-18 09:34:00,69.9,67.5,29.93,NNW,330,0.0,2.0,92,0.00,,,0.01,Wunderground v.1.15,2013-06-18 13:34:00,
2013-06-18 09:35:00,70.0,67.3,29.94,NNW,329,0.0,2.0,91,0.00,,,0.01,Wunderground v.1.15,2013-06-18 13:35:00,
2013-06-18 09:36:00,70.2,67.4,29.93,NNW,329,0.0,2.0,91,0.00,,,0.01,Wunderground v.1.15,2013-06-18 13:36:00,
2013-06-18 09:39:00,70.6,68.2,29.93,NNW,329,0.0,2.0,92,0.00,,,0.01,Wunderground v.1.15,2013-06-18 13:39:00,
2013-06-18 09:40:00,70.6,67.5,29.93,NNW,329,0.0,0.0,90,0.00,,,0.01,Wunderground v.1.15,2013-06-18 13:40:00,
2013-06-18 09:42:00,70.7,67.6,29.93,NNW,342,2.0,4.0,90,0.00,,,0.01,Wunderground v.1.15,2013-06-18 13:42:00,
2013-06-18 09:44:00,70.7,67.0,29.93,North,7,0.0,4.0,88,0.00,,,0.01,Wunderground v.1.15,2013-06-18 13:44:00,
2013-06-18 09:45:00,70.8,67.1,29.93,North,7,1.0,4.0,88,0.00,,,0.01,Wunderground v.1.15,2013-06-18 13:45:00,
2013-06-18 09:47:00,70.8,67.1,29.94,North,350,7.0,7.0,88,0.00,,,0.01,Wunderground v.1.15,2013-06-18 13:47:00,
2013-06-18 09:50:00,70.8,66.4,29.93,WNW,296,4.0,4.0,86,0.00,,,0.01,Wunderground v.1.15,2013-06-18 13:50:00,
2013-06-18 09:52:00,70.8,66.7,29.93,NW,321,0.0,5.0,87,0.00,,,0.01,Wunderground v.1.15,2013-06-18 13:52:00,
2013-06-18 09:55:00,71.0,67.3,29.93,NW,321,0.0,5.0,88,0.00,,,0.01,Wunderground v.1.15,2013-06-18 13:55:00,
2013-06-18 09:56:00,71.2,67.1,29.93,NW,324,0.0,5.0,87,0.00,,,0.01,Wunderground v.1.15,2013-06-18 13:56:00,
2013-06-18 09:57:00,71.3,67.6,29.93,NW,324,0.0,5.0,88,0.00,,,0.01,Wunderground v.1.15,2013-06-18 13:57:00,
2013-06-18 10:00:00,71.5,67.1,29.93,NNW,333,0.0,1.0,86,0.00,,,0.01,Wunderground v.1.15,2013-06-18 14:00:00,
2013-06-18 10:01:00,71.6,67.2,29.93,NNW,334,0.0,1.0,86,0.00,,,0.01,Wunderground v.1.15,2013-06-18 14:01:00,
2013-06-18 10:02:00,71.8,67.4,29.93,NNW,333,0.0,1.0,86,0.00,,,0.01,Wunderground v.1.15,2013-06-18 14:02:00,
2013-06-18 10:03:00,71.9,67.8,29.93,NNW,334,0.0,1.0,87,0.00,,,0.01,Wunderground v.1.15,2013-06-18 14:03:00,
2013-06-18 10:05:00,72.2,67.4,29.93,North,355,0.0,6.0,85,0.00,,,0.01,Wunderground v.1.15,2013-06-18 14:05:00,
2013-06-18 10:06:00,72.4,67.6,29.93,North,356,0.0,6.0,85,0.00,,,0.01,Wunderground v.1.15,2013-06-18 14:06:00,
2013-06-18 10:07:00,72.6,68.2,29.93,North,9,1.0,6.0,86,0.00,,,0.01,Wunderground v.1.15,2013-06-18 14:07:00,
2013-06-18 10:08:00,72.7,67.9,29.93,North,11,0.0,6.0,85,0.00,,,0.01,Wunderground v.1.15,2013-06-18 14:08:00,
2013-06-18 10:10:00,73.2,68.1,29.92,North,11,0.0,1.0,84,0.00,,,0.01,Wunderground v.1.15,2013-06-18 14:10:00,
2013-06-18 10:11:00,73.3,68.2,29.92,North,11,1.0,1.0,84,0.00,,,0.01,Wunderground v.1.15,2013-06-18 14:11:00,
2013-06-18 10:12:00,73.5,67.7,29.93,North,11,1.0,1.0,82,0.00,,,0.01,Wunderground v.1.15,2013-06-18 14:12:00,
2013-06-18 10:13:00,73.6,67.4,29.93,North,11,0.0,1.0,81,0.00,,,0.01,Wunderground v.1.15,2013-06-18 14:13:00,
2013-06-18 10:16:00,73.8,68.0,29.93,North,11,0.0,1.0,82,0.00,,,0.01,Wunderground v.1.15,2013-06-18 14:16:00,
2013-06-18 10:17:00,73.9,67.7,29.93,North,9,1.0,4.0,81,0.00,,,0.01,Wunderground v.1.15,2013-06-18 14:17:00,
2013-06-18 10:18:00,73.9,67.7,29.93,North,9,1.0,4.0,81,0.00,,,0.01,Wunderground v.1.15,2013-06-18 14:18:00,
2013-06-18 10:21:00,74.0,67.1,29.93,North,1,0.0,4.0,79,0.00,,,0.01,Wunderground v.1.15,2013-06-18 14:21:00,
2013-06-18 10:22:00,74.0,67.4,29.93,North,1,0.0,4.0,80,0.00,,,0.01,Wunderground v.1.15,2013-06-18 14:22:00,
2013-06-18 10:23:00,74.0,67.4,29.93,North,1,3.0,4.0,80,0.00,,,0.01,Wunderground v.1.15,2013-06-18 14:23:00,
2013-06-18 10:26:00,74.2,66.5,29.93,North,359,0.0,4.0,77,0.00,,,0.01,Wunderground v.1.15,2013-06-18 14:26:00,
2013-06-18 10:27:00,74.2,66.5,29.93,North,359,0.0,4.0,77,0.00,,,0.01,Wunderground v.1.15,2013-06-18 14:27:00,
2013-06-18 10:28:00,74.3,67.0,29.93,North,359,0.0,4.0,78,0.00,,,0.01,Wunderground v.1.15,2013-06-18 14:28:00,
2013-06-18 10:31:00,74.4,67.1,29.93,North,7,1.0,4.0,78,0.00,,,0.01,Wunderground v.1.15,2013-06-18 14:31:00,
2013-06-18 10:32:00,74.4,67.1,29.93,North,7,1.0,4.0,78,0.00,,,0.01,Wunderground v.1.15,2013-06-18 14:32:00,
2013-06-18 10:33:00,74.3,66.6,29.93,North,7,0.0,4.0,77,0.00,,,0.01,Wunderground v.1.15,2013-06-18 14:33:00,
2013-06-18 10:37:00,74.9,67.9,29.93,North,5,0.0,4.0,79,0.00,,,0.01,Wunderground v.1.15,2013-06-18 14:37:00,
2013-06-18 10:38:00,74.9,66.8,29.92,North,349,5.0,6.0,76,0.00,,,0.01,Wunderground v.1.15,2013-06-18 14:38:00,
2013-06-18 10:42:00,75.2,67.5,29.92,NNE,15,2.0,4.0,77,0.00,,,0.01,Wunderground v.1.15,2013-06-18 14:42:00,
2013-06-18 10:43:00,75.4,66.9,29.92,NNE,15,1.0,4.0,75,0.00,,,0.01,Wunderground v.1.15,2013-06-18 14:43:00,
2013-06-18 10:47:00,75.7,67.2,29.92,NE,40,1.0,6.0,75,0.00,,,0.01,Wunderground v.1.15,2013-06-18 14:47:00,
2013-06-18 10:48:00,75.9,68.5,29.92,NE,40,0.0,6.0,78,0.00,,,0.01,Wunderground v.1.15,2013-06-18 14:48:00,
2013-06-18 10:52:00,76.2,68.1,29.92,NNE,31,0.0,3.0,76,0.00,,,0.01,Wunderground v.1.15,2013-06-18 14:52:00,
2013-06-18 10:53:00,76.3,68.2,29.92,NNE,31,0.0,3.0,76,0.00,,,0.01,Wunderground v.1.15,2013-06-18 14:53:00,
2013-06-18 10:54:00,76.2,66.9,29.92,NNE,30,0.0,3.0,73,0.00,,,0.01,Wunderground v.1.15,2013-06-18 14:54:00,
2013-06-18 10:57:00,76.3,67.4,29.92,North,7,0.0,4.0,74,0.00,,,0.01,Wunderground v.1.15,2013-06-18 14:57:00,
2013-06-18 10:58:00,76.3,67.4,29.92,North,7,0.0,4.0,74,0.00,,,0.01,Wunderground v.1.15,2013-06-18 14:58:00,
2013-06-18 10:59:00,76.3,67.8,29.92,North,7,0.0,4.0,75,0.00,,,0.01,Wunderground v.1.15,2013-06-18 14:59:00,
2013-06-18 11:03:00,76.8,67.9,29.92,NNE,13,0.0,3.0,74,0.00,,,0.01,Wunderground v.1.15,2013-06-18 15:03:00,
2013-06-18 11:04:00,77.0,68.1,29.92,NNE,13,0.0,3.0,74,0.00,,,0.01,Wunderground v.1.15,2013-06-18 15:04:00,
2013-06-18 11:08:00,77.3,67.2,29.91,NNE,13,0.0,3.0,71,0.00,,,0.01,Wunderground v.1.15,2013-06-18 15:08:00,
2013-06-18 11:09:00,77.3,67.6,29.92,NNE,13,1.0,3.0,72,0.00,,,0.01,Wunderground v.1.15,2013-06-18 15:09:00,
2013-06-18 11:10:00,77.3,67.2,29.92,North,352,3.0,4.0,71,0.00,,,0.01,Wunderground v.1.15,2013-06-18 15:10:00,
2013-06-18 11:13:00,77.4,66.8,29.92,North,10,0.0,5.0,70,0.00,,,0.01,Wunderground v.1.15,2013-06-18 15:13:00,
2013-06-18 11:14:00,77.5,68.2,29.92,North,10,0.0,5.0,73,0.00,,,0.01,Wunderground v.1.15,2013-06-18 15:14:00,
2013-06-18 11:15:00,77.5,68.6,29.92,North,8,0.0,5.0,74,0.00,,,0.01,Wunderground v.1.15,2013-06-18 15:15:00,
2013-06-18 11:18:00,77.6,68.3,29.92,NE,43,1.0,5.0,73,0.00,,,0.01,Wunderground v.1.15,2013-06-18 15:18:00,
2013-06-18 11:19:00,77.6,68.3,29.92,NE,43,0.0,5.0,73,0.00,,,0.01,Wunderground v.1.15,2013-06-18 15:19:00,
2013-06-18 11:20:00,77.8,68.4,29.92,NE,43,0.0,5.0,73,0.00,,,0.01,Wunderground v.1.15,2013-06-18 15:20:00,
2013-06-18 11:24:00,78.0,67.8,29.91,NE,43,0.0,1.0,71,0.00,,,0.01,Wunderground v.1.15,2013-06-18 15:24:00,
2013-06-18 11:25:00,78.0,67.8,29.91,NE,43,0.0,1.0,71,0.00,,,0.01,Wunderground v.1.15,2013-06-18 15:25:00,
2013-06-18 11:29:00,78.2,68.4,29.91,NE,39,2.0,3.0,72,0.00,,,0.01,Wunderground v.1.15,2013-06-18 15:29:00,
2013-06-18 11:30:00,78.2,68.0,29.91,North,7,0.0,3.0,71,0.00,,,0.01,Wunderground v.1.15,2013-06-18 15:30:00,
2013-06-18 11:34:00,78.2,67.6,29.91,North,359,0.0,6.0,70,0.00,,,0.01,Wunderground v.1.15,2013-06-18 15:34:00,
2013-06-18 11:35:00,78.2,67.6,29.91,North,359,3.0,6.0,70,0.00,,,0.01,Wunderground v.1.15,2013-06-18 15:35:00,
2013-06-18 11:36:00,78.3,68.9,29.91,North,359,0.0,6.0,73,0.00,,,0.01,Wunderground v.1.15,2013-06-18 15:36:00,
2013-06-18 11:39:00,77.9,66.1,29.91,NW,316,0.0,6.0,67,0.00,,,0.01,Wunderground v.1.15,2013-06-18 15:39:00,
2013-06-18 11:40:00,77.8,67.6,29.91,NW,315,0.0,6.0,71,0.00,,,0.01,Wunderground v.1.15,2013-06-18 15:40:00,
2013-06-18 11:41:00,77.7,67.5,29.91,NW,315,0.0,4.0,71,0.00,,,0.01,Wunderground v.1.15,2013-06-18 15:41:00,
2013-06-18 11:44:00,77.5,66.9,29.91,West,274,3.0,4.0,70,0.00,,,0.01,Wunderground v.1.15,2013-06-18 15:44:00,
2013-06-18 11:45:00,77.5,67.4,29.91,West,281,3.0,7.0,71,0.00,,,0.01,Wunderground v.1.15,2013-06-18 15:45:00,
2013-06-18 11:46:00,77.4,68.1,29.91,NW,318,3.0,7.0,73,0.00,,,0.01,Wunderground v.1.15,2013-06-18 15:46:00,
2013-06-18 11:49:00,77.5,67.8,29.91,NW,318,0.0,7.0,72,0.00,,,0.01,Wunderground v.1.15,2013-06-18 15:49:00,
2013-06-18 11:50:00,77.6,67.9,29.91,NW,319,0.0,1.0,72,0.00,,,0.01,Wunderground v.1.15,2013-06-18 15:50:00,
2013-06-18 11:51:00,77.8,69.2,29.91,NW,320,0.0,1.0,75,0.00,,,0.01,Wunderground v.1.15,2013-06-18 15:51:00,
2013-06-18 11:54:00,78.0,67.4,29.91,West,260,4.0,6.0,70,0.00,,,0.01,Wunderground v.1.15,2013-06-18 15:54:00,
2013-06-18 11:55:00,78.0,67.4,29.91,West,260,0.0,6.0,70,0.00,,,0.01,Wunderground v.1.15,2013-06-18 15:55:00,
2013-06-18 11:57:00,78.1,69.1,29.91,West,261,1.0,6.0,74,0.00,,,0.01,Wunderground v.1.15,2013-06-18 15:57:00,
2013-06-18 12:00:00,78.1,68.7,29.91,North,1,5.0,6.0,73,0.00,,,0.01,Wunderground v.1.15,2013-06-18 16:00:00,
2013-06-18 12:01:00,78.2,69.6,29.92,North,356,0.0,4.0,75,0.00,,,0.01,Wunderground v.1.15,2013-06-18 16:01:00,
2013-06-18 12:02:00,78.4,69.0,29.92,North,355,0.0,4.0,73,0.00,,,0.01,Wunderground v.1.15,2013-06-18 16:02:00,
2013-06-18 12:05:00,78.3,67.3,29.92,NW,307,0.0,4.0,69,0.00,,,0.01,Wunderground v.1.15,2013-06-18 16:05:00,
2013-06-18 12:06:00,78.3,67.3,29.92,WNW,287,4.0,5.0,69,0.00,,,0.01,Wunderground v.1.15,2013-06-18 16:06:00,
2013-06-18 12:07:00,78.3,67.7,29.92,WNW,294,2.0,5.0,70,0.00,,,0.01,Wunderground v.1.15,2013-06-18 16:07:00,
2013-06-18 12:10:00,78.3,68.1,29.92,North,11,9.0,9.0,71,0.00,,,0.01,Wunderground v.1.15,2013-06-18 16:10:00,
2013-06-18 12:11:00,78.3,67.7,29.92,North,359,2.0,10.0,70,0.00,,,0.01,Wunderground v.1.15,2013-06-18 16:11:00,
2013-06-18 12:12:00,78.3,67.7,29.92,North,354,1.0,10.0,70,0.00,,,0.01,Wunderground v.1.15,2013-06-18 16:12:00,
2013-06-18 12:15:00,78.3,68.1,29.92,NNE,21,1.0,10.0,71,0.00,,,0.01,Wunderground v.1.15,2013-06-18 16:15:00,
2013-06-18 12:16:00,78.4,68.2,29.92,NNE,20,0.0,10.0,71,0.00,,,0.01,Wunderground v.1.15,2013-06-18 16:16:00,
2013-06-18 12:17:00,78.4,68.2,29.92,North,353,2.0,10.0,71,0.00,,,0.01,Wunderground v.1.15,2013-06-18 16:17:00,
2013-06-18 12:20:00,78.7,68.9,29.91,NNW,338,4.0,4.0,72,0.00,,,0.01,Wunderground v.1.15,2013-06-18 16:20:00,
2013-06-18 12:21:00,78.7,68.9,29.91,NNW,338,4.0,6.0,72,0.00,,,0.01,Wunderground v.1.15,2013-06-18 16:21:00,
2013-06-18 12:22:00,78.7,68.1,29.91,NNW,348,0.0,7.0,70,0.00,,,0.01,Wunderground v.1.15,2013-06-18 16:22:00,
2013-06-18 12:23:00,78.7,69.3,29.91,NNW,348,0.0,7.0,73,0.00,,,0.01,Wunderground v.1.15,2013-06-18 16:23:00,
2013-06-18 12:25:00,78.8,68.6,29.91,NNW,348,0.0,7.0,71,0.00,,,0.01,Wunderground v.1.15,2013-06-18 16:25:00,
2013-06-18 12:26:00,78.9,68.7,29.91,NNW,348,0.0,7.0,71,0.00,,,0.01,Wunderground v.1.15,2013-06-18 16:26:00,
2013-06-18 12:27:00,78.9,67.4,29.91,NNW,348,0.0,7.0,68,0.00,,,0.01,Wunderground v.1.15,2013-06-18 16:27:00,
2013-06-18 12:28:00,79.1,68.5,29.91,North,359,2.0,7.0,70,0.00,,,0.01,Wunderground v.1.15,2013-06-18 16:28:00,
2013-06-18 12:30:00,79.4,69.2,29.91,North,359,0.0,1.0,71,0.00,,,0.01,Wunderground v.1.15,2013-06-18 16:30:00,
2013-06-18 12:31:00,79.6,69.8,29.91,North,359,0.0,1.0,72,0.00,,,0.01,Wunderground v.1.15,2013-06-18 16:31:00,
2013-06-18 12:33:00,79.8,69.6,29.91,North,359,2.0,3.0,71,0.00,,,0.01,Wunderground v.1.15,2013-06-18 16:33:00,
2013-06-18 12:35:00,79.5,67.6,29.91,NW,323,0.0,5.0,67,0.00,,,0.01,Wunderground v.1.15,2013-06-18 16:35:00,
2013-06-18 12:36:00,79.4,68.3,29.91,NW,326,0.0,5.0,69,0.00,,,0.01,Wunderground v.1.15,2013-06-18 16:36:00,
2013-06-18 12:38:00,79.4,68.8,29.91,NW,326,0.0,5.0,70,0.00,,,0.01,Wunderground v.1.15,2013-06-18 16:38:00,
2013-06-18 12:41:00,79.5,67.6,29.91,NNW,330,0.0,1.0,67,0.00,,,0.01,Wunderground v.1.15,2013-06-18 16:41:00,
2013-06-18 12:43:00,79.7,69.0,29.91,NNW,330,0.0,1.0,70,0.00,,,0.01,Wunderground v.1.15,2013-06-18 16:43:00,
2013-06-18 12:46:00,80.0,69.3,29.91,NNW,328,2.0,7.0,70,0.00,,,0.01,Wunderground v.1.15,2013-06-18 16:46:00,
2013-06-18 12:47:00,80.1,69.4,29.91,NW,323,1.0,7.0,70,0.00,,,0.01,Wunderground v.1.15,2013-06-18 16:47:00,
2013-06-18 12:48:00,80.0,68.5,29.91,NW,322,0.0,7.0,68,0.00,,,0.01,Wunderground v.1.15,2013-06-18 16:48:00,
2013-06-18 12:51:00,80.0,68.5,29.91,North,354,4.0,5.0,68,0.00,,,0.01,Wunderground v.1.15,2013-06-18 16:51:00,
2013-06-18 12:52:00,80.0,68.5,29.91,North,354,0.0,5.0,68,0.00,,,0.01,Wunderground v.1.15,2013-06-18 16:52:00,
2013-06-18 12:53:00,80.1,69.8,29.91,North,357,1.0,5.0,71,0.00,,,0.01,Wunderground v.1.15,2013-06-18 16:53:00,
2013-06-18 12:57:00,80.3,69.6,29.91,North,357,0.0,5.0,70,0.00,,,0.01,Wunderground v.1.15,2013-06-18 16:57:00,
2013-06-18 12:58:00,80.5,71.0,29.91,NNW,340,3.0,5.0,73,0.00,,,0.01,Wunderground v.1.15,2013-06-18 16:58:00,
2013-06-18 12:59:00,80.5,68.5,29.91,NNW,346,4.0,5.0,67,0.00,,,0.01,Wunderground v.1.15,2013-06-18 16:59:00,
2013-06-18 13:02:00,80.8,68.4,29.91,NNW,335,0.0,4.0,66,0.00,,,0.01,Wunderground v.1.15,2013-06-18 17:02:00,
2013-06-18 13:03:00,80.9,70.2,29.91,North,350,3.0,4.0,70,0.00,,,0.01,Wunderground v.1.15,2013-06-18 17:03:00,
2013-06-18 13:04:00,80.9,70.6,29.91,North,355,5.0,5.0,71,0.00,,,0.01,Wunderground v.1.15,2013-06-18 17:04:00,
2013-06-18 13:07:00,81.1,70.0,29.91,NNW,340,3.0,7.0,69,0.00,,,0.01,Wunderground v.1.15,2013-06-18 17:07:00,
2013-06-18 13:08:00,81.1,68.7,29.91,NNW,337,5.0,7.0,66,0.00,,,0.01,Wunderground v.1.15,2013-06-18 17:08:00,
2013-06-18 13:09:00,81.1,69.1,29.91,North,360,5.0,7.0,67,0.00,,,0.01,Wunderground v.1.15,2013-06-18 17:09:00,
2013-06-18 13:12:00,80.8,68.8,29.91,North,353,0.0,5.0,67,0.00,,,0.01,Wunderground v.1.15,2013-06-18 17:12:00,
2013-06-18 13:13:00,80.7,66.9,29.91,North,353,0.0,5.0,63,0.00,,,0.01,Wunderground v.1.15,2013-06-18 17:13:00,
2013-06-18 13:14:00,80.6,67.7,29.90,North,353,1.0,5.0,65,0.00,,,0.01,Wunderground v.1.15,2013-06-18 17:14:00,
2013-06-18 13:17:00,80.6,69.1,29.90,North,353,0.0,5.0,68,0.00,,,0.01,Wunderground v.1.15,2013-06-18 17:17:00,
2013-06-18 13:18:00,80.6,69.1,29.90,North,353,0.0,5.0,68,0.00,,,0.01,Wunderground v.1.15,2013-06-18 17:18:00,
2013-06-18 13:19:00,80.7,69.6,29.90,North,353,0.0,5.0,69,0.00,,,0.01,Wunderground v.1.15,2013-06-18 17:19:00,
2013-06-18 13:22:00,80.7,67.8,29.90,North,358,0.0,5.0,65,0.00,,,0.01,Wunderground v.1.15,2013-06-18 17:22:00,
2013-06-18 13:23:00,80.7,67.8,29.90,North,358,0.0,5.0,65,0.00,,,0.01,Wunderground v.1.15,2013-06-18 17:23:00,
2013-06-18 13:24:00,80.8,67.9,29.90,North,5,0.0,5.0,65,0.00,,,0.01,Wunderground v.1.15,2013-06-18 17:24:00,
2013-06-18 13:27:00,81.1,69.1,29.90,North,5,0.0,5.0,67,0.00,,,0.01,Wunderground v.1.15,2013-06-18 17:27:00,
2013-06-18 13:28:00,81.2,68.3,29.90,North,5,0.0,5.0,65,0.00,,,0.01,Wunderground v.1.15,2013-06-18 17:28:00,
2013-06-18 13:29:00,81.3,68.4,29.90,North,5,0.0,5.0,65,0.00,,,0.01,Wunderground v.1.15,2013-06-18 17:29:00,
2013-06-18 13:30:00,81.4,68.5,29.90,North,5,0.0,5.0,65,0.00,,,0.01,Wunderground v.1.15,2013-06-18 17:30:00,
2013-06-18 13:32:00,81.7,68.3,29.90,WSW,249,3.0,5.0,64,0.00,,,0.01,Wunderground v.1.15,2013-06-18 17:32:00,
2013-06-18 13:33:00,81.7,68.3,29.90,WSW,248,0.0,5.0,64,0.00,,,0.01,Wunderground v.1.15,2013-06-18 17:33:00,
2013-06-18 13:34:00,81.8,68.0,29.90,WSW,246,5.0,5.0,63,0.00,,,0.01,Wunderground v.1.15,2013-06-18 17:34:00,
2013-06-18 13:35:00,81.8,68.4,29.90,WSW,256,0.0,5.0,64,0.00,,,0.01,Wunderground v.1.15,2013-06-18 17:35:00,
2013-06-18 13:38:00,81.7,70.1,29.90,NNW,330,0.0,10.0,68,0.00,,,0.01,Wunderground v.1.15,2013-06-18 17:38:00,
2013-06-18 13:39:00,81.7,69.7,29.90,NNW,330,0.0,10.0,67,0.00,,,0.01,Wunderground v.1.15,2013-06-18 17:39:00,
2013-06-18 13:40:00,81.8,69.3,29.90,NNW,330,0.0,2.0,66,0.00,,,0.01,Wunderground v.1.15,2013-06-18 17:40:00,
2013-06-18 13:43:00,81.6,66.8,29.90,NNW,344,2.0,6.0,61,0.00,,,0.01,Wunderground v.1.15,2013-06-18 17:43:00,
2013-06-18 13:44:00,81.5,69.0,29.90,NNW,344,0.0,6.0,66,0.00,,,0.01,Wunderground v.1.15,2013-06-18 17:44:00,
2013-06-18 13:45:00,81.5,69.5,29.90,North,350,0.0,6.0,67,0.00,,,0.01,Wunderground v.1.15,2013-06-18 17:45:00,
2013-06-18 13:48:00,81.7,68.3,29.90,NNW,346,1.0,6.0,64,0.00,,,0.01,Wunderground v.1.15,2013-06-18 17:48:00,
2013-06-18 13:49:00,81.8,68.9,29.90,West,278,4.0,6.0,65,0.00,,,0.01,Wunderground v.1.15,2013-06-18 17:49:00,
2013-06-18 13:50:00,81.9,68.1,29.90,West,268,0.0,3.0,63,0.00,,,0.01,Wunderground v.1.15,2013-06-18 17:50:00,
2013-06-18 13:53:00,81.9,68.5,29.90,NW,319,1.0,5.0,64,0.00,,,0.01,Wunderground v.1.15,2013-06-18 17:53:00,
2013-06-18 13:54:00,81.8,68.0,29.90,NW,317,2.0,5.0,63,0.00,,,0.01,Wunderground v.1.15,2013-06-18 17:54:00,
2013-06-18 13:55:00,81.8,67.5,29.90,NW,317,0.0,5.0,62,0.00,,,0.01,Wunderground v.1.15,2013-06-18 17:55:00,
2013-06-18 13:58:00,81.8,68.9,29.90,NW,325,0.0,5.0,65,0.00,,,0.01,Wunderground v.1.15,2013-06-18 17:58:00,
2013-06-18 13:59:00,81.8,68.9,29.90,NW,326,0.0,5.0,65,0.00,,,0.01,Wunderground v.1.15,2013-06-18 17:59:00,
2013-06-18 14:00:00,81.8,67.5,29.90,NNW,328,1.0,1.0,62,0.00,,,0.01,Wunderground v.1.15,2013-06-18 18:00:00,
2013-06-18 14:01:00,81.8,67.5,29.90,NNW,328,0.0,1.0,62,0.00,,,0.01,Wunderground v.1.15,2013-06-18 18:01:00,
2013-06-18 14:04:00,82.0,69.1,29.90,NW,316,7.0,7.0,65,0.00,,,0.01,Wunderground v.1.15,2013-06-18 18:04:00,
2013-06-18 14:05:00,81.9,69.0,29.90,NW,307,3.0,7.0,65,0.00,,,0.01,Wunderground v.1.15,2013-06-18 18:05:00,
2013-06-18 14:06:00,81.8,68.9,29.90,North,351,1.0,7.0,65,0.00,,,0.01,Wunderground v.1.15,2013-06-18 18:06:00,
2013-06-18 14:09:00,81.8,68.4,29.90,North,5,5.0,7.0,64,0.00,,,0.01,Wunderground v.1.15,2013-06-18 18:09:00,
2013-06-18 14:10:00,81.9,69.9,29.90,North,9,3.0,7.0,67,0.00,,,0.01,Wunderground v.1.15,2013-06-18 18:10:00,
2013-06-18 14:11:00,82.0,70.0,29.90,North,3,0.0,3.0,67,0.00,,,0.01,Wunderground v.1.15,2013-06-18 18:11:00,
2013-06-18 14:14:00,82.2,68.3,29.90,West,267,0.0,6.0,63,0.00,,,0.01,Wunderground v.1.15,2013-06-18 18:14:00,
2013-06-18 14:15:00,82.2,68.3,29.90,West,267,1.0,6.0,63,0.00,,,0.01,Wunderground v.1.15,2013-06-18 18:15:00,
2013-06-18 14:16:00,82.2,68.8,29.90,West,267,3.0,6.0,64,0.00,,,0.01,Wunderground v.1.15,2013-06-18 18:16:00,
2013-06-18 14:20:00,82.4,71.2,29.90,West,272,0.0,1.0,69,0.00,,,0.01,Wunderground v.1.15,2013-06-18 18:20:00,
2013-06-18 14:21:00,82.5,70.4,29.90,West,274,2.0,4.0,67,0.00,,,0.01,Wunderground v.1.15,2013-06-18 18:21:00,
2013-06-18 14:25:00,82.8,69.8,29.90,West,271,3.0,5.0,65,0.00,,,0.01,Wunderground v.1.15,2013-06-18 18:25:00,
2013-06-18 14:26:00,82.8,69.8,29.90,WNW,294,0.0,5.0,65,0.00,,,0.01,Wunderground v.1.15,2013-06-18 18:26:00,
2013-06-18 14:30:00,82.7,68.8,29.90,West,273,1.0,2.0,63,0.00,,,0.01,Wunderground v.1.15,2013-06-18 18:30:00,
2013-06-18 14:31:00,82.7,68.4,29.90,West,272,0.0,2.0,62,0.00,,,0.01,Wunderground v.1.15,2013-06-18 18:31:00,
2013-06-18 14:35:00,82.4,69.4,29.90,West,274,0.0,5.0,65,0.00,,,0.01,Wunderground v.1.15,2013-06-18 18:35:00,
2013-06-18 14:36:00,82.4,70.3,29.90,West,272,3.0,5.0,67,0.00,,,0.01,Wunderground v.1.15,2013-06-18 18:36:00,
2013-06-18 14:40:00,82.8,72.8,29.89,NW,312,2.0,4.0,72,0.00,,,0.01,Wunderground v.1.15,2013-06-18 18:40:00,
2013-06-18 14:41:00,82.9,70.4,29.89,NW,312,0.0,4.0,66,0.00,,,0.01,Wunderground v.1.15,2013-06-18 18:41:00,
2013-06-18 14:42:00,82.9,68.5,29.89,NW,312,0.0,4.0,62,0.00,,,0.01,Wunderground v.1.15,2013-06-18 18:42:00,
2013-06-18 14:45:00,83.2,69.3,29.89,NW,312,0.0,4.0,63,0.00,,,0.01,Wunderground v.1.15,2013-06-18 18:45:00,
2013-06-18 14:46:00,83.4,70.4,29.89,NW,312,0.0,4.0,65,0.00,,,0.01,Wunderground v.1.15,2013-06-18 18:46:00,
2013-06-18 14:47:00,83.6,70.1,29.89,WSW,253,2.0,6.0,64,0.00,,,0.01,Wunderground v.1.15,2013-06-18 18:47:00,
2013-06-18 14:50:00,83.8,68.9,29.89,WSW,253,0.0,1.0,61,0.00,,,0.01,Wunderground v.1.15,2013-06-18 18:50:00,
2013-06-18 14:51:00,83.9,69.5,29.89,West,260,1.0,2.0,62,0.00,,,0.01,Wunderground v.1.15,2013-06-18 18:51:00,
2013-06-18 14:52:00,83.9,70.0,29.89,WSW,254,5.0,7.0,63,0.00,,,0.01,Wunderground v.1.15,2013-06-18 18:52:00,
2013-06-18 14:55:00,83.6,68.7,29.89,WSW,258,6.0,8.0,61,0.00,,,0.01,Wunderground v.1.15,2013-06-18 18:55:00,
2013-06-18 14:56:00,83.5,68.6,29.89,WSW,240,0.0,8.0,61,0.00,,,0.01,Wunderground v.1.15,2013-06-18 18:56:00,
2013-06-18 14:57:00,83.4,68.5,29.89,WSW,240,0.0,8.0,61,0.00,,,0.01,Wunderground v.1.15,2013-06-18 18:57:00,
2013-06-18 15:00:00,83.5,70.0,29.89,WSW,258,3.0,4.0,64,0.00,,,0.01,Wunderground v.1.15,2013-06-18 19:00:00,
2013-06-18 15:01:00,83.5,70.9,29.89,West,259,0.0,4.0,66,0.00,,,0.01,Wunderground v.1.15,2013-06-18 19:01:00,
2013-06-18 15:02:00,83.5,70.0,29.89,WNW,288,3.0,4.0,64,0.00,,,0.01,Wunderground v.1.15,2013-06-18 19:02:00,
2013-06-18 15:03:00,83.5,69.1,29.89,WNW,285,1.0,4.0,62,0.00,,,0.01,Wunderground v.1.15,2013-06-18 19:03:00,
2013-06-18 15:05:00,83.6,71.5,29.89,NW,305,4.0,5.0,67,0.00,,,0.01,Wunderground v.1.15,2013-06-18 19:05:00,
2013-06-18 15:06:00,83.6,69.2,29.89,NW,305,0.0,5.0,62,0.00,,,0.01,Wunderground v.1.15,2013-06-18 19:06:00,
2013-06-18 15:07:00,83.6,68.7,29.89,NW,305,0.0,5.0,61,0.00,,,0.01,Wunderground v.1.15,2013-06-18 19:07:00,
2013-06-18 15:08:00,83.6,70.6,29.89,NW,325,3.0,5.0,65,0.00,,,0.01,Wunderground v.1.15,2013-06-18 19:08:00,
2013-06-18 15:11:00,83.8,69.9,29.90,West,259,8.0,9.0,63,0.00,,,0.01,Wunderground v.1.15,2013-06-18 19:11:00,
2013-06-18 15:12:00,83.8,68.9,29.90,West,262,6.0,9.0,61,0.00,,,0.01,Wunderground v.1.15,2013-06-18 19:12:00,
2013-06-18 15:13:00,83.8,68.4,29.90,NNW,337,3.0,9.0,60,0.00,,,0.01,Wunderground v.1.15,2013-06-18 19:13:00,
2013-06-18 15:16:00,83.8,68.4,29.90,WSW,257,0.0,9.0,60,0.00,,,0.01,Wunderground v.1.15,2013-06-18 19:16:00,
2013-06-18 15:17:00,83.9,69.5,29.90,WSW,257,1.0,9.0,62,0.00,,,0.01,Wunderground v.1.15,2013-06-18 19:17:00,
2013-06-18 15:18:00,83.9,68.0,29.90,WSW,257,2.0,9.0,59,0.00,,,0.01,Wunderground v.1.15,2013-06-18 19:18:00,
2013-06-18 15:22:00,84.2,70.7,29.90,North,356,4.0,5.0,64,0.00,,,0.01,Wunderground v.1.15,2013-06-18 19:22:00,
2013-06-18 15:23:00,84.2,69.3,29.90,NNW,344,0.0,6.0,61,0.00,,,0.01,Wunderground v.1.15,2013-06-18 19:23:00,
2013-06-18 15:27:00,84.6,71.5,29.90,North,5,2.0,6.0,65,0.00,,,0.01,Wunderground v.1.15,2013-06-18 19:27:00,
2013-06-18 15:28:00,84.7,71.2,29.90,North,5,0.0,6.0,64,0.00,,,0.01,Wunderground v.1.15,2013-06-18 19:28:00,
2013-06-18 15:32:00,84.7,68.8,29.89,NNW,342,5.0,6.0,59,0.00,,,0.01,Wunderground v.1.15,2013-06-18 19:32:00,
2013-06-18 15:33:00,84.7,69.3,29.89,NNW,340,0.0,6.0,60,0.00,,,0.01,Wunderground v.1.15,2013-06-18 19:33:00,
2013-06-18 15:34:00,84.8,69.4,29.89,NNW,338,0.0,6.0,60,0.00,,,0.01,Wunderground v.1.15,2013-06-18 19:34:00,
2013-06-18 15:37:00,85.0,71.5,29.90,NNE,12,0.0,6.0,64,0.00,,,0.01,Wunderground v.1.15,2013-06-18 19:37:00,
2013-06-18 15:38:00,85.2,72.1,29.89,NNE,12,0.0,6.0,65,0.00,,,0.01,Wunderground v.1.15,2013-06-18 19:38:00,
2013-06-18 15:39:00,85.2,72.1,29.89,NNE,12,0.0,6.0,65,0.00,,,0.01,Wunderground v.1.15,2013-06-18 19:39:00,
2013-06-18 15:42:00,85.2,68.2,29.89,NNE,16,1.0,3.0,57,0.00,,,0.01,Wunderground v.1.15,2013-06-18 19:42:00,
2013-06-18 15:43:00,85.0,68.6,29.89,NE,36,0.0,4.0,58,0.00,,,0.01,Wunderground v.1.15,2013-06-18 19:43:00,
2013-06-18 15:44:00,84.9,68.5,29.89,NE,36,0.0,4.0,58,0.00,,,0.01,Wunderground v.1.15,2013-06-18 19:44:00,
2013-06-18 15:47:00,84.9,69.5,29.89,NE,35,0.0,4.0,60,0.00,,,0.01,Wunderground v.1.15,2013-06-18 19:47:00,
2013-06-18 15:49:00,85.0,70.0,29.89,WNW,296,3.0,6.0,61,0.00,,,0.01,Wunderground v.1.15,2013-06-18 19:49:00,
2013-06-18 15:52:00,85.2,69.3,29.89,NNW,341,2.0,5.0,59,0.00,,,0.01,Wunderground v.1.15,2013-06-18 19:52:00,
2013-06-18 15:54:00,85.2,70.7,29.89,NNW,344,0.0,5.0,62,0.00,,,0.01,Wunderground v.1.15,2013-06-18 19:54:00,
2013-06-18 15:58:00,85.3,70.8,29.89,NNW,340,0.0,5.0,62,0.00,,,0.01,Wunderground v.1.15,2013-06-18 19:58:00,
2013-06-18 15:59:00,85.3,70.8,29.89,NNW,341,1.0,5.0,62,0.00,,,0.01,Wunderground v.1.15,2013-06-18 19:59:00,
2013-06-18 16:03:00,85.1,70.6,29.89,NW,316,3.0,6.0,62,0.00,,,0.01,Wunderground v.1.15,2013-06-18 20:03:00,
2013-06-18 16:04:00,85.1,70.1,29.89,NNW,342,1.0,6.0,61,0.00,,,0.01,Wunderground v.1.15,2013-06-18 20:04:00,
2013-06-18 16:05:00,85.1,72.0,29.89,NNW,342,0.0,6.0,65,0.00,,,0.01,Wunderground v.1.15,2013-06-18 20:05:00,
2013-06-18 16:08:00,85.1,69.7,29.89,NW,309,0.0,6.0,60,0.00,,,0.01,Wunderground v.1.15,2013-06-18 20:08:00,
2013-06-18 16:09:00,85.2,70.2,29.89,NW,310,0.0,6.0,61,0.00,,,0.01,Wunderground v.1.15,2013-06-18 20:09:00,
2013-06-18 16:10:00,85.2,70.2,29.89,NW,311,0.0,6.0,61,0.00,,,0.01,Wunderground v.1.15,2013-06-18 20:10:00,
2013-06-18 16:13:00,85.6,71.6,29.89,NW,321,2.0,6.0,63,0.00,,,0.01,Wunderground v.1.15,2013-06-18 20:13:00,
2013-06-18 16:14:00,85.7,70.2,29.89,NW,317,0.0,6.0,60,0.00,,,0.01,Wunderground v.1.15,2013-06-18 20:14:00,
2013-06-18 16:15:00,85.8,70.8,29.89,NW,320,0.0,6.0,61,0.00,,,0.01,Wunderground v.1.15,2013-06-18 20:15:00,
2013-06-18 16:16:00,86.0,71.5,29.89,NNW,338,1.0,6.0,62,0.00,,,0.01,Wunderground v.1.15,2013-06-18 20:16:00,
2013-06-18 16:18:00,86.4,70.9,29.89,NNW,338,0.0,6.0,60,0.00,,,0.01,Wunderground v.1.15,2013-06-18 20:18:00,
2013-06-18 16:20:00,86.5,72.9,29.89,NNW,347,0.0,1.0,64,0.00,,,0.01,Wunderground v.1.15,2013-06-18 20:20:00,
2013-06-18 16:21:00,86.7,72.6,29.89,NW,309,0.0,4.0,63,0.00,,,0.01,Wunderground v.1.15,2013-06-18 20:21:00,
2013-06-18 16:24:00,86.8,69.7,29.89,WNW,286,0.0,5.0,57,0.00,,,0.01,Wunderground v.1.15,2013-06-18 20:24:00,
2013-06-18 16:25:00,86.8,69.7,29.89,WNW,286,0.0,5.0,57,0.00,,,0.01,Wunderground v.1.15,2013-06-18 20:25:00,
2013-06-18 16:26:00,86.6,70.1,29.88,NW,313,2.0,7.0,58,0.00,,,0.01,Wunderground v.1.15,2013-06-18 20:26:00,
2013-06-18 16:29:00,86.1,69.1,29.88,NW,313,0.0,7.0,57,0.00,,,0.01,Wunderground v.1.15,2013-06-18 20:29:00,
2013-06-18 16:30:00,86.1,69.1,29.88,NW,313,0.0,2.0,57,0.00,,,0.01,Wunderground v.1.15,2013-06-18 20:30:00,
2013-06-18 16:31:00,86.1,69.1,29.88,North,7,7.0,7.0,57,0.00,,,0.01,Wunderground v.1.15,2013-06-18 20:31:00,
2013-06-18 16:34:00,86.2,71.6,29.88,North,7,4.0,7.0,62,0.00,,,0.01,Wunderground v.1.15,2013-06-18 20:34:00,
2013-06-18 16:35:00,86.2,69.7,29.88,NNW,344,4.0,7.0,58,0.00,,,0.01,Wunderground v.1.15,2013-06-18 20:35:00,
2013-06-18 16:36:00,86.2,70.7,29.88,NNW,348,3.0,7.0,60,0.00,,,0.01,Wunderground v.1.15,2013-06-18 20:36:00,
2013-06-18 16:37:00,86.3,71.3,29.88,NNW,344,3.0,7.0,61,0.00,,,0.01,Wunderground v.1.15,2013-06-18 20:37:00,
2013-06-18 16:39:00,86.5,70.0,29.88,NNW,344,1.0,7.0,58,0.00,,,0.01,Wunderground v.1.15,2013-06-18 20:39:00,
2013-06-18 16:40:00,86.5,70.5,29.88,NNW,344,1.0,2.0,59,0.00,,,0.01,Wunderground v.1.15,2013-06-18 20:40:00,
2013-06-18 16:41:00,86.6,70.1,29.88,NNW,344,0.0,2.0,58,0.00,,,0.01,Wunderground v.1.15,2013-06-18 20:41:00,
2013-06-18 16:42:00,86.7,70.7,29.88,West,271,4.0,4.0,59,0.00,,,0.01,Wunderground v.1.15,2013-06-18 20:42:00,
2013-06-18 16:44:00,86.9,70.3,29.88,North,352,1.0,6.0,58,0.00,,,0.01,Wunderground v.1.15,2013-06-18 20:44:00,
2013-06-18 16:45:00,86.9,70.8,29.88,NNW,347,0.0,6.0,59,0.00,,,0.01,Wunderground v.1.15,2013-06-18 20:45:00,
2013-06-18 16:47:00,87.1,71.0,29.88,NNW,340,0.0,6.0,59,0.00,,,0.01,Wunderground v.1.15,2013-06-18 20:47:00,
2013-06-18 16:50:00,87.2,70.1,29.88,NNE,23,3.0,5.0,57,0.00,,,0.01,Wunderground v.1.15,2013-06-18 20:50:00,
2013-06-18 16:51:00,87.3,70.7,29.88,NNE,20,1.0,5.0,58,0.00,,,0.01,Wunderground v.1.15,2013-06-18 20:51:00,
2013-06-18 16:52:00,87.3,70.7,29.87,NNE,21,0.0,5.0,58,0.00,,,0.01,Wunderground v.1.15,2013-06-18 20:52:00,
2013-06-18 16:55:00,87.6,70.0,29.87,North,4,0.0,5.0,56,0.00,,,0.01,Wunderground v.1.15,2013-06-18 20:55:00,
2013-06-18 16:56:00,87.7,70.6,29.87,East,93,2.0,5.0,57,0.00,,,0.01,Wunderground v.1.15,2013-06-18 20:56:00,
2013-06-18 16:57:00,87.9,70.8,29.87,East,93,1.0,5.0,57,0.00,,,0.01,Wunderground v.1.15,2013-06-18 20:57:00,
2013-06-18 17:00:00,88.4,70.2,29.87,West,267,4.0,7.0,55,0.00,,,0.01,Wunderground v.1.15,2013-06-18 21:00:00,
2013-06-18 17:01:00,88.4,69.6,29.87,West,264,4.0,7.0,54,0.00,,,0.01,Wunderground v.1.15,2013-06-18 21:01:00,
2013-06-18 17:02:00,88.3,69.5,29.87,West,263,0.0,7.0,54,0.00,,,0.01,Wunderground v.1.15,2013-06-18 21:02:00,
2013-06-18 17:05:00,88.0,70.3,29.87,WSW,248,3.0,7.0,56,0.00,,,0.01,Wunderground v.1.15,2013-06-18 21:05:00,
2013-06-18 17:06:00,88.0,70.3,29.87,WSW,249,2.0,7.0,56,0.00,,,0.01,Wunderground v.1.15,2013-06-18 21:06:00,
2013-06-18 17:07:00,87.9,70.8,29.86,SW,234,4.0,7.0,57,0.00,,,0.01,Wunderground v.1.15,2013-06-18 21:07:00,
2013-06-18 17:08:00,87.8,70.7,29.86,SW,234,3.0,7.0,57,0.00,,,0.01,Wunderground v.1.15,2013-06-18 21:08:00,
2013-06-18 17:11:00,87.8,70.1,29.86,SW,228,4.0,5.0,56,0.00,,,0.01,Wunderground v.1.15,2013-06-18 21:11:00,
2013-06-18 17:12:00,87.8,70.1,29.86,SW,228,4.0,5.0,56,0.00,,,0.01,Wunderground v.1.15,2013-06-18 21:12:00,
2013-06-18 17:13:00,87.9,70.2,29.86,SW,228,2.0,5.0,56,0.00,,,0.01,Wunderground v.1.15,2013-06-18 21:13:00,
2013-06-18 17:16:00,88.0,69.8,29.86,WNW,300,3.0,5.0,55,0.00,,,0.01,Wunderground v.1.15,2013-06-18 21:16:00,
2013-06-18 17:17:00,87.9,69.2,29.86,WNW,303,0.0,5.0,54,0.00,,,0.01,Wunderground v.1.15,2013-06-18 21:17:00,
2013-06-18 17:18:00,87.9,70.8,29.86,WNW,303,0.0,5.0,57,0.00,,,0.01,Wunderground v.1.15,2013-06-18 21:18:00,
2013-06-18 17:21:00,87.9,69.2,29.86,NW,309,3.0,4.0,54,0.00,,,0.01,Wunderground v.1.15,2013-06-18 21:21:00,
2013-06-18 17:22:00,87.9,69.2,29.86,WNW,296,4.0,4.0,54,0.00,,,0.01,Wunderground v.1.15,2013-06-18 21:22:00,
2013-06-18 17:23:00,87.7,69.0,29.86,WNW,296,0.0,4.0,54,0.00,,,0.01,Wunderground v.1.15,2013-06-18 21:23:00,
2013-06-18 17:26:00,87.6,70.0,29.86,WNW,284,0.0,4.0,56,0.00,,,0.01,Wunderground v.1.15,2013-06-18 21:26:00,
2013-06-18 17:27:00,87.7,70.6,29.86,WNW,283,0.0,4.0,57,0.00,,,0.01,Wunderground v.1.15,2013-06-18 21:27:00,
2013-06-18 17:28:00,87.6,70.5,29.86,West,281,2.0,4.0,57,0.00,,,0.01,Wunderground v.1.15,2013-06-18 21:28:00,
2013-06-18 17:29:00,87.7,70.1,29.86,West,272,4.0,5.0,56,0.00,,,0.01,Wunderground v.1.15,2013-06-18 21:29:00,
2013-06-18 17:32:00,87.6,70.0,29.86,West,259,4.0,6.0,56,0.00,,,0.01,Wunderground v.1.15,2013-06-18 21:32:00,
2013-06-18 17:33:00,87.6,71.5,29.85,West,261,0.0,6.0,59,0.00,,,0.01,Wunderground v.1.15,2013-06-18 21:33:00,
2013-06-18 17:34:00,87.6,69.4,29.85,West,267,0.0,6.0,55,0.00,,,0.01,Wunderground v.1.15,2013-06-18 21:34:00,
2013-06-18 17:37:00,87.5,69.3,29.85,West,265,3.0,6.0,55,0.00,,,0.01,Wunderground v.1.15,2013-06-18 21:37:00,
2013-06-18 17:38:00,87.5,68.3,29.85,West,265,0.0,6.0,53,0.00,,,0.01,Wunderground v.1.15,2013-06-18 21:38:00,
2013-06-18 17:39:00,87.4,69.8,29.85,West,264,0.0,6.0,56,0.00,,,0.01,Wunderground v.1.15,2013-06-18 21:39:00,
2013-06-18 17:42:00,87.4,68.7,29.85,West,260,3.0,4.0,54,0.00,,,0.01,Wunderground v.1.15,2013-06-18 21:42:00,
2013-06-18 17:43:00,87.4,68.7,29.85,West,261,2.0,5.0,54,0.00,,,0.01,Wunderground v.1.15,2013-06-18 21:43:00,
2013-06-18 17:44:00,87.4,70.3,29.85,WNW,299,0.0,5.0,57,0.00,,,0.01,Wunderground v.1.15,2013-06-18 21:44:00,
2013-06-18 17:47:00,87.4,68.2,29.85,WNW,299,0.0,5.0,53,0.00,,,0.01,Wunderground v.1.15,2013-06-18 21:47:00,
2013-06-18 17:48:00,87.4,68.2,29.85,WNW,299,0.0,5.0,53,0.00,,,0.01,Wunderground v.1.15,2013-06-18 21:48:00,
2013-06-18 17:49:00,87.4,68.7,29.84,WNW,299,0.0,5.0,54,0.00,,,0.01,Wunderground v.1.15,2013-06-18 21:49:00,
2013-06-18 17:52:00,87.6,69.4,29.84,WNW,295,0.0,2.0,55,0.00,,,0.01,Wunderground v.1.15,2013-06-18 21:52:00,
2013-06-18 17:53:00,87.7,70.6,29.84,WNW,287,5.0,5.0,57,0.00,,,0.01,Wunderground v.1.15,2013-06-18 21:53:00,
2013-06-18 17:54:00,87.7,68.4,29.84,West,279,3.0,5.0,53,0.00,,,0.01,Wunderground v.1.15,2013-06-18 21:54:00,
2013-06-18 17:57:00,87.8,69.1,29.84,WSW,257,1.0,6.0,54,0.00,,,0.01,Wunderground v.1.15,2013-06-18 21:57:00,
2013-06-18 17:58:00,87.7,69.0,29.84,NNW,329,4.0,6.0,54,0.00,,,0.01,Wunderground v.1.15,2013-06-18 21:58:00,
2013-06-18 17:59:00,87.7,70.6,29.84,NW,324,1.0,6.0,57,0.00,,,0.01,Wunderground v.1.15,2013-06-18 21:59:00,
2013-06-18 18:02:00,87.2,69.1,29.84,NW,321,0.0,3.0,55,0.00,,,0.01,Wunderground v.1.15,2013-06-18 22:02:00,
2013-06-18 18:04:00,87.2,69.6,29.84,West,280,2.0,5.0,56,0.00,,,0.01,Wunderground v.1.15,2013-06-18 22:04:00,
2013-06-18 18:05:00,87.1,69.5,29.84,West,280,0.0,5.0,56,0.00,,,0.01,Wunderground v.1.15,2013-06-18 22:05:00,
2013-06-18 18:07:00,87.2,70.6,29.84,West,264,0.0,5.0,58,0.00,,,0.01,Wunderground v.1.15,2013-06-18 22:07:00,
2013-06-18 18:09:00,87.1,69.0,29.84,West,264,0.0,5.0,55,0.00,,,0.01,Wunderground v.1.15,2013-06-18 22:09:00,
2013-06-18 18:10:00,87.2,68.0,29.84,West,264,0.0,1.0,53,0.00,,,0.01,Wunderground v.1.15,2013-06-18 22:10:00,
2013-06-18 18:12:00,87.1,67.9,29.84,West,264,0.0,1.0,53,0.00,,,0.01,Wunderground v.1.15,2013-06-18 22:12:00,
2013-06-18 18:14:00,87.2,70.6,29.84,West,264,0.0,1.0,58,0.00,,,0.01,Wunderground v.1.15,2013-06-18 22:14:00,
2013-06-18 18:15:00,87.2,69.6,29.84,West,264,0.0,1.0,56,0.00,,,0.01,Wunderground v.1.15,2013-06-18 22:15:00,
2013-06-18 18:18:00,87.4,70.8,29.84,West,265,0.0,4.0,58,0.00,,,0.01,Wunderground v.1.15,2013-06-18 22:18:00,
2013-06-18 18:19:00,87.5,69.3,29.84,West,264,0.0,4.0,55,0.00,,,0.01,Wunderground v.1.15,2013-06-18 22:19:00,
2013-06-18 18:20:00,87.5,70.4,29.84,West,265,0.0,0.0,57,0.00,,,0.01,Wunderground v.1.15,2013-06-18 22:20:00,
2013-06-18 18:23:00,87.5,70.9,29.84,NW,308,0.0,4.0,58,0.00,,,0.01,Wunderground v.1.15,2013-06-18 22:23:00,
2013-06-18 18:24:00,87.5,71.9,29.84,NW,307,0.0,4.0,60,0.00,,,0.01,Wunderground v.1.15,2013-06-18 22:24:00,
2013-06-18 18:25:00,87.6,71.0,29.84,WSW,252,4.0,5.0,58,0.00,,,0.01,Wunderground v.1.15,2013-06-18 22:25:00,
2013-06-18 18:28:00,87.3,69.2,29.85,West,266,3.0,6.0,55,0.00,,,0.01,Wunderground v.1.15,2013-06-18 22:28:00,
2013-06-18 18:29:00,87.2,69.6,29.85,West,264,1.0,6.0,56,0.00,,,0.01,Wunderground v.1.15,2013-06-18 22:29:00,
2013-06-18 18:30:00,87.2,70.1,29.85,West,264,4.0,4.0,57,0.00,,,0.01,Wunderground v.1.15,2013-06-18 22:30:00,
2013-06-18 18:31:00,87.1,70.0,29.85,West,268,0.0,4.0,57,0.00,,,0.01,Wunderground v.1.15,2013-06-18 22:31:00,
2013-06-18 18:33:00,87.0,69.4,29.85,West,267,2.0,4.0,56,0.00,,,0.01,Wunderground v.1.15,2013-06-18 22:33:00,
2013-06-18 18:35:00,87.0,69.9,29.85,West,265,4.0,4.0,57,0.00,,,0.01,Wunderground v.1.15,2013-06-18 22:35:00,
2013-06-18 18:36:00,87.0,70.9,29.85,West,265,0.0,4.0,59,0.00,,,0.01,Wunderground v.1.15,2013-06-18 22:36:00,
2013-06-18 18:38:00,87.1,70.5,29.86,West,265,0.0,4.0,58,0.00,,,0.01,Wunderground v.1.15,2013-06-18 22:38:00,
2013-06-18 18:40:00,87.1,70.5,29.86,West,265,0.0,1.0,58,0.00,,,0.01,Wunderground v.1.15,2013-06-18 22:40:00,
2013-06-18 18:41:00,87.1,70.5,29.86,West,265,0.0,1.0,58,0.00,,,0.01,Wunderground v.1.15,2013-06-18 22:41:00,
2013-06-18 18:43:00,87.1,72.0,29.86,West,265,0.0,1.0,61,0.00,,,0.01,Wunderground v.1.15,2013-06-18 22:43:00,
2013-06-18 18:46:00,87.2,71.6,29.86,West,274,0.0,3.0,60,0.00,,,0.01,Wunderground v.1.15,2013-06-18 22:46:00,
2013-06-18 18:47:00,87.3,71.2,29.86,WNW,302,4.0,4.0,59,0.00,,,0.01,Wunderground v.1.15,2013-06-18 22:47:00,
2013-06-18 18:48:00,87.3,70.2,29.86,NNE,17,6.0,7.0,57,0.00,,,0.01,Wunderground v.1.15,2013-06-18 22:48:00,
2013-06-18 18:51:00,87.4,71.3,29.86,North,353,0.0,1.0,59,0.00,,,0.01,Wunderground v.1.15,2013-06-18 22:51:00,
2013-06-18 18:52:00,87.4,70.8,29.86,North,352,1.0,1.0,58,0.00,,,0.01,Wunderground v.1.15,2013-06-18 22:52:00,
2013-06-18 18:53:00,87.3,69.7,29.86,West,266,5.0,8.0,56,0.00,,,0.01,Wunderground v.1.15,2013-06-18 22:53:00,
2013-06-18 18:56:00,86.7,69.6,29.86,SW,217,3.0,8.0,57,0.00,,,0.01,Wunderground v.1.15,2013-06-18 22:56:00,
2013-06-18 18:57:00,86.6,70.1,29.87,WNW,294,3.0,8.0,58,0.00,,,0.01,Wunderground v.1.15,2013-06-18 22:57:00,
2013-06-18 18:58:00,86.4,68.8,29.87,NW,307,0.0,8.0,56,0.00,,,0.01,Wunderground v.1.15,2013-06-18 22:58:00,
2013-06-18 19:01:00,86.2,69.2,29.87,North,3,3.0,4.0,57,0.00,,,0.01,Wunderground v.1.15,2013-06-18 23:01:00,
2013-06-18 19:02:00,86.2,69.2,29.87,North,9,6.0,6.0,57,0.00,,,0.01,Wunderground v.1.15,2013-06-18 23:02:00,
2013-06-18 19:04:00,86.0,70.5,29.87,NW,325,0.0,9.0,60,0.00,,,0.01,Wunderground v.1.15,2013-06-18 23:04:00,
2013-06-18 19:06:00,85.7,69.7,29.87,NNW,334,0.0,9.0,59,0.00,,,0.01,Wunderground v.1.15,2013-06-18 23:06:00,
2013-06-18 19:07:00,85.7,69.2,29.87,NNW,333,0.0,9.0,58,0.00,,,0.01,Wunderground v.1.15,2013-06-18 23:07:00,
2013-06-18 19:08:00,85.7,69.2,29.87,NNW,329,2.0,9.0,58,0.00,,,0.01,Wunderground v.1.15,2013-06-18 23:08:00,
2013-06-18 19:09:00,85.5,69.5,29.87,NNW,329,1.0,9.0,59,0.00,,,0.01,Wunderground v.1.15,2013-06-18 23:09:00,
2013-06-18 19:12:00,85.2,69.3,29.87,NNW,343,0.0,4.0,59,0.00,,,0.01,Wunderground v.1.15,2013-06-18 23:12:00,
2013-06-18 19:13:00,85.1,70.1,29.87,NNW,342,0.0,4.0,61,0.00,,,0.01,Wunderground v.1.15,2013-06-18 23:13:00,
2013-06-18 19:14:00,84.9,70.4,29.88,NNE,13,4.0,6.0,62,0.00,,,0.01,Wunderground v.1.15,2013-06-18 23:14:00,
2013-06-18 19:17:00,84.7,70.2,29.88,NW,321,3.0,6.0,62,0.00,,,0.01,Wunderground v.1.15,2013-06-18 23:17:00,
2013-06-18 19:18:00,84.6,70.1,29.88,SW,219,0.0,6.0,62,0.00,,,0.01,Wunderground v.1.15,2013-06-18 23:18:00,
2013-06-18 19:20:00,84.4,69.5,29.88,North,9,1.0,2.0,61,0.00,,,0.01,Wunderground v.1.15,2013-06-18 23:20:00,
2013-06-18 19:22:00,83.9,69.5,29.88,North,3,1.0,5.0,62,0.00,,,0.01,Wunderground v.1.15,2013-06-18 23:22:00,
2013-06-18 19:23:00,83.8,69.4,29.88,NNE,27,0.0,5.0,62,0.00,,,0.01,Wunderground v.1.15,2013-06-18 23:23:00,
2013-06-18 19:25:00,83.5,69.6,29.88,NW,325,1.0,5.0,63,0.00,,,0.01,Wunderground v.1.15,2013-06-18 23:25:00,
2013-06-18 19:27:00,83.1,69.2,29.88,North,1,2.0,8.0,63,0.00,,,0.01,Wunderground v.1.15,2013-06-18 23:27:00,
2013-06-18 19:28:00,83.0,69.1,29.88,North,360,0.0,8.0,63,0.00,,,0.01,Wunderground v.1.15,2013-06-18 23:28:00,
2013-06-18 19:30:00,82.7,69.3,29.89,North,353,0.0,1.0,64,0.00,,,0.01,Wunderground v.1.15,2013-06-18 23:30:00,
2013-06-18 19:33:00,82.3,69.4,29.90,North,1,2.0,6.0,65,0.00,,,0.01,Wunderground v.1.15,2013-06-18 23:33:00,
2013-06-18 19:34:00,82.2,70.1,29.91,SE,124,6.0,6.0,67,0.00,,,0.01,Wunderground v.1.15,2013-06-18 23:34:00,
2013-06-18 19:35:00,81.7,68.3,29.91,NW,314,3.0,18.0,64,0.00,,,0.01,Wunderground v.1.15,2013-06-18 23:35:00,
2013-06-18 19:38:00,80.5,66.3,29.92,North,9,12.0,18.0,62,0.00,,,0.01,Wunderground v.1.15,2013-06-18 23:38:00,
2013-06-18 19:39:00,79.9,65.2,29.92,WNW,301,6.0,18.0,61,0.00,,,0.01,Wunderground v.1.15,2013-06-18 23:39:00,
2013-06-18 19:40:00,79.0,64.9,29.92,NNW,342,2.0,5.0,62,0.00,,,0.01,Wunderground v.1.15,2013-06-18 23:40:00,
2013-06-18 19:43:00,78.1,64.9,29.92,NNW,339,2.0,5.0,64,0.00,,,0.01,Wunderground v.1.15,2013-06-18 23:43:00,
2013-06-18 19:44:00,77.6,64.9,29.92,North,7,2.0,5.0,65,0.00,,,0.01,Wunderground v.1.15,2013-06-18 23:44:00,
2013-06-18 19:46:00,76.9,64.7,29.92,ESE,104,3.0,5.0,66,0.00,,,0.01,Wunderground v.1.15,2013-06-18 23:46:00,
2013-06-18 19:48:00,76.0,64.7,29.92,NE,34,1.0,12.0,68,0.00,,,0.01,Wunderground v.1.15,2013-06-18 23:48:00,
2013-06-18 19:49:00,75.7,64.4,29.92,NNW,340,2.0,12.0,68,0.00,,,0.01,Wunderground v.1.15,2013-06-18 23:49:00,
2013-06-18 19:51:00,75.1,64.6,29.92,North,356,1.0,7.0,70,0.00,,,0.01,Wunderground v.1.15,2013-06-18 23:51:00,
2013-06-18 19:53:00,74.3,64.3,29.93,NNW,346,12.0,12.0,71,0.00,,,0.01,Wunderground v.1.15,2013-06-18 23:53:00,
2013-06-18 19:54:00,74.1,64.1,29.93,NNW,334,14.0,14.0,71,0.00,,,0.01,Wunderground v.1.15,2013-06-18 23:54:00,
2013-06-18 19:56:00,73.3,63.7,29.92,NW,319,10.0,19.0,72,0.00,,,0.01,Wunderground v.1.15,2013-06-18 23:56:00,
2013-06-18 19:58:00,72.7,63.9,29.92,NNW,348,0.0,19.0,74,0.00,,,0.01,Wunderground v.1.15,2013-06-18 23:58:00,
2013-06-18 19:59:00,72.4,63.3,29.93,North,350,4.0,19.0,73,0.00,,,0.01,Wunderground v.1.15,2013-06-18 23:59:00,
2013-06-18 20:00:00,72.3,63.2,29.93,North,3,10.0,12.0,73,0.00,,,0.01,Wunderground v.1.15,2013-06-19 00:00:00,
2013-06-18 20:01:00,72.0,62.9,29.92,NNW,342,0.0,13.0,73,0.00,,,0.01,Wunderground v.1.15,2013-06-19 00:01:00,
2013-06-18 20:03:00,71.7,63.4,29.92,NNE,26,2.0,13.0,75,0.00,,,0.01,Wunderground v.1.15,2013-06-19 00:03:00,
2013-06-18 20:04:00,71.5,63.2,29.92,SE,134,5.0,13.0,75,0.00,,,0.01,Wunderground v.1.15,2013-06-19 00:04:00,
2013-06-18 20:05:00,71.4,63.1,29.92,North,9,2.0,13.0,75,0.00,,,0.01,Wunderground v.1.15,2013-06-19 00:05:00,
2013-06-18 20:07:00,71.3,63.3,29.92,West,265,1.0,13.0,76,0.00,,,0.01,Wunderground v.1.15,2013-06-19 00:07:00,
2013-06-18 20:08:00,71.1,62.8,29.91,ESE,105,0.0,13.0,75,0.00,,,0.01,Wunderground v.1.15,2013-06-19 00:08:00,
2013-06-18 20:09:00,71.0,62.7,29.91,SE,126,0.0,13.0,75,0.00,,,0.01,Wunderground v.1.15,2013-06-19 00:09:00,
2013-06-18 20:11:00,70.9,63.0,29.91,SE,126,0.0,2.0,76,0.00,,,0.01,Wunderground v.1.15,2013-06-19 00:11:00,
2013-06-18 20:13:00,70.8,62.9,29.91,SSW,195,4.0,7.0,76,0.00,,,0.01,Wunderground v.1.15,2013-06-19 00:13:00,
2013-06-18 20:14:00,70.7,62.8,29.91,North,350,0.0,7.0,76,0.00,,,0.01,Wunderground v.1.15,2013-06-19 00:14:00,
2013-06-18 20:16:00,70.5,62.9,29.91,NW,324,11.0,11.0,77,0.00,,,0.01,Wunderground v.1.15,2013-06-19 00:16:00,
2013-06-18 20:18:00,70.4,62.5,29.91,NNW,334,3.0,11.0,76,0.00,,,0.01,Wunderground v.1.15,2013-06-19 00:18:00,
2013-06-18 20:19:00,70.2,62.6,29.92,North,1,8.0,11.0,77,0.00,,,0.01,Wunderground v.1.15,2013-06-19 00:19:00,
2013-06-18 20:20:00,70.2,62.6,29.92,NW,318,6.0,11.0,77,0.00,,,0.01,Wunderground v.1.15,2013-06-19 00:20:00,
2013-06-18 20:21:00,70.1,62.6,29.91,North,358,0.0,11.0,77,0.00,,,0.01,Wunderground v.1.15,2013-06-19 00:21:00,
2013-06-18 20:23:00,69.9,62.7,29.91,NNW,332,4.0,11.0,78,0.00,,,0.01,Wunderground v.1.15,2013-06-19 00:23:00,
2013-06-18 20:24:00,69.8,62.6,29.91,NW,324,3.0,11.0,78,0.00,,,0.01,Wunderground v.1.15,2013-06-19 00:24:00,
2013-06-18 20:25:00,69.8,62.6,29.91,North,352,11.0,12.0,78,0.00,,,0.01,Wunderground v.1.15,2013-06-19 00:25:00,
2013-06-18 20:27:00,69.6,62.4,29.91,North,7,0.0,12.0,78,0.00,,,0.01,Wunderground v.1.15,2013-06-19 00:27:00,
2013-06-18 20:28:00,69.5,62.3,29.91,North,7,0.0,12.0,78,0.00,,,0.01,Wunderground v.1.15,2013-06-19 00:28:00,
2013-06-18 20:29:00,69.4,62.6,29.91,North,360,5.0,12.0,79,0.00,,,0.01,Wunderground v.1.15,2013-06-19 00:29:00,
2013-06-18 20:30:00,69.4,62.6,29.91,North,1,2.0,4.0,79,0.00,,,0.01,Wunderground v.1.15,2013-06-19 00:30:00,
2013-06-18 20:32:00,69.3,62.5,29.90,North,353,0.0,4.0,79,0.00,,,0.01,Wunderground v.1.15,2013-06-19 00:32:00,
2013-06-18 20:33:00,69.2,62.8,29.90,North,353,0.0,4.0,80,0.00,,,0.01,Wunderground v.1.15,2013-06-19 00:33:00,
2013-06-18 20:34:00,69.2,62.8,29.90,North,353,0.0,4.0,80,0.00,,,0.01,Wunderground v.1.15,2013-06-19 00:34:00,
2013-06-18 20:35:00,69.2,62.8,29.90,North,354,0.0,4.0,80,0.00,,,0.01,Wunderground v.1.15,2013-06-19 00:35:00,
2013-06-18 20:37:00,69.0,62.9,29.90,North,353,0.0,4.0,81,0.00,,,0.01,Wunderground v.1.15,2013-06-19 00:37:00,
2013-06-18 20:38:00,69.0,62.9,29.90,North,353,0.0,4.0,81,0.00,,,0.01,Wunderground v.1.15,2013-06-19 00:38:00,
2013-06-18 20:39:00,69.0,62.9,29.90,North,7,3.0,5.0,81,0.00,,,0.01,Wunderground v.1.15,2013-06-19 00:39:00,
2013-06-18 20:40:00,68.9,62.8,29.90,North,359,0.0,4.0,81,0.00,,,0.01,Wunderground v.1.15,2013-06-19 00:40:00,
2013-06-18 20:42:00,68.8,63.1,29.90,NNW,347,5.0,9.0,82,0.00,,,0.01,Wunderground v.1.15,2013-06-19 00:42:00,
2013-06-18 20:43:00,68.8,63.1,29.90,North,360,1.0,9.0,82,0.00,,,0.01,Wunderground v.1.15,2013-06-19 00:43:00,
2013-06-18 20:44:00,68.7,63.0,29.90,North,352,3.0,9.0,82,0.00,,,0.01,Wunderground v.1.15,2013-06-19 00:44:00,
2013-06-18 20:46:00,68.6,62.9,29.90,North,355,0.0,9.0,82,0.00,,,0.01,Wunderground v.1.15,2013-06-19 00:46:00,
2013-06-18 20:47:00,68.5,62.8,29.90,NNW,348,3.0,9.0,82,0.00,,,0.01,Wunderground v.1.15,2013-06-19 00:47:00,
2013-06-18 20:48:00,68.5,63.1,29.90,NNW,348,3.0,9.0,83,0.00,,,0.01,Wunderground v.1.15,2013-06-19 00:48:00,
2013-06-18 20:49:00,68.4,63.0,29.90,NNW,348,0.0,9.0,83,0.00,,,0.01,Wunderground v.1.15,2013-06-19 00:49:00,
2013-06-18 20:50:00,68.4,63.0,29.90,NNW,348,0.0,2.0,83,0.00,,,0.01,Wunderground v.1.15,2013-06-19 00:50:00,
2013-06-18 20:51:00,68.3,62.9,29.90,NNW,346,3.0,4.0,83,0.00,,,0.01,Wunderground v.1.15,2013-06-19 00:51:00,
2013-06-18 20:52:00,68.3,63.3,29.90,NNW,347,0.0,4.0,84,0.00,,,0.01,Wunderground v.1.15,2013-06-19 00:52:00,
2013-06-18 20:53:00,68.2,63.2,29.89,NNW,346,0.0,4.0,84,0.00,,,0.01,Wunderground v.1.15,2013-06-19 00:53:00,
2013-06-18 20:54:00,68.2,63.2,29.90,NNW,346,0.0,4.0,84,0.00,,,0.01,Wunderground v.1.15,2013-06-19 00:54:00,
2013-06-18 20:56:00,68.1,63.1,29.90,NNW,347,0.0,4.0,84,0.00,,,0.01,Wunderground v.1.15,2013-06-19 00:56:00,
2013-06-18 20:57:00,68.0,63.0,29.90,NNW,346,0.0,4.0,84,0.00,,,0.01,Wunderground v.1.15,2013-06-19 00:57:00,
2013-06-18 20:58:00,68.0,63.0,29.90,NNW,347,0.0,4.0,84,0.00,,,0.01,Wunderground v.1.15,2013-06-19 00:58:00,
2013-06-18 21:00:00,68.0,63.0,29.89,NNW,347,0.0,0.0,84,0.00,,,0.01,Wunderground v.1.15,2013-06-19 01:00:00,
2013-06-18 21:01:00,68.0,63.0,29.89,NNW,348,0.0,0.0,84,0.00,,,0.01,Wunderground v.1.15,2013-06-19 01:01:00,
2013-06-18 21:02:00,67.9,62.9,29.89,NNW,348,0.0,0.0,84,0.00,,,0.01,Wunderground v.1.15,2013-06-19 01:02:00,
2013-06-18 21:03:00,67.9,63.2,29.89,NNW,348,0.0,0.0,85,0.00,,,0.01,Wunderground v.1.15,2013-06-19 01:03:00,
2013-06-18 21:05:00,67.9,62.9,29.89,North,356,0.0,4.0,84,0.00,,,0.01,Wunderground v.1.15,2013-06-19 01:05:00,
2013-06-18 21:06:00,67.9,62.9,29.89,North,356,0.0,4.0,84,0.00,,,0.01,Wunderground v.1.15,2013-06-19 01:06:00,
2013-06-18 21:07:00,67.9,62.9,29.89,North,358,0.0,4.0,84,0.00,,,0.01,Wunderground v.1.15,2013-06-19 01:07:00,
2013-06-18 21:09:00,67.9,62.9,29.89,North,358,0.0,4.0,84,0.00,,,0.01,Wunderground v.1.15,2013-06-19 01:09:00,
2013-06-18 21:10:00,67.9,63.2,29.90,North,357,0.0,0.0,85,0.00,,,0.01,Wunderground v.1.15,2013-06-19 01:10:00,
2013-06-18 21:11:00,67.9,63.2,29.90,North,357,0.0,0.0,85,0.00,,,0.01,Wunderground v.1.15,2013-06-19 01:11:00,
2013-06-18 21:13:00,67.9,63.2,29.90,North,358,0.0,0.0,85,0.00,,,0.01,Wunderground v.1.15,2013-06-19 01:13:00,
2013-06-18 21:14:00,68.0,63.3,29.90,North,357,0.0,0.0,85,0.00,,,0.01,Wunderground v.1.15,2013-06-19 01:14:00,
2013-06-18 21:16:00,68.0,63.3,29.90,North,358,0.0,1.0,85,0.00,,,0.01,Wunderground v.1.15,2013-06-19 01:16:00,
2013-06-18 21:18:00,67.9,63.2,29.90,North,357,0.0,3.0,85,0.00,,,0.01,Wunderground v.1.15,2013-06-19 01:18:00,
2013-06-18 21:19:00,67.9,63.2,29.90,North,358,0.0,3.0,85,0.00,,,0.01,Wunderground v.1.15,2013-06-19 01:19:00,
2013-06-18 21:21:00,67.9,63.2,29.91,North,357,0.0,1.0,85,0.00,,,0.01,Wunderground v.1.15,2013-06-19 01:21:00,
2013-06-18 21:23:00,67.9,63.2,29.91,North,358,0.0,1.0,85,0.00,,,0.01,Wunderground v.1.15,2013-06-19 01:23:00,
2013-06-18 21:25:00,67.9,63.2,29.91,North,357,0.0,1.0,85,0.00,,,0.01,Wunderground v.1.15,2013-06-19 01:25:00,
2013-06-18 21:26:00,67.9,63.2,29.91,North,357,0.0,1.0,85,0.00,,,0.01,Wunderground v.1.15,2013-06-19 01:26:00,
2013-06-18 21:27:00,67.9,63.2,29.91,North,358,0.0,1.0,85,0.00,,,0.01,Wunderground v.1.15,2013-06-19 01:27:00,
2013-06-18 21:28:00,67.9,63.2,29.92,North,357,0.0,1.0,85,0.00,,,0.01,Wunderground v.1.15,2013-06-19 01:28:00,
2013-06-18 21:29:00,67.9,62.9,29.92,North,358,0.0,1.0,84,0.00,,,0.01,Wunderground v.1.15,2013-06-19 01:29:00,
2013-06-18 21:30:00,67.9,63.2,29.92,North,357,0.0,1.0,85,0.00,,,0.01,Wunderground v.1.15,2013-06-19 01:30:00,
2013-06-18 21:31:00,67.9,63.2,29.92,North,358,0.0,1.0,85,0.00,,,0.01,Wunderground v.1.15,2013-06-19 01:31:00,
2013-06-18 21:32:00,67.9,63.2,29.92,North,358,1.0,1.0,85,0.00,,,0.01,Wunderground v.1.15,2013-06-19 01:32:00,
2013-06-18 21:33:00,67.9,63.2,29.92,North,358,0.0,2.0,85,0.00,,,0.01,Wunderground v.1.15,2013-06-19 01:33:00,
2013-06-18 21:34:00,67.9,63.2,29.92,North,358,0.0,2.0,85,0.00,,,0.01,Wunderground v.1.15,2013-06-19 01:34:00,
2013-06-18 21:35:00,67.9,63.2,29.92,North,358,0.0,2.0,85,0.00,,,0.01,Wunderground v.1.15,2013-06-19 01:35:00,
2013-06-18 21:37:00,67.9,63.2,29.92,North,357,0.0,2.0,85,0.00,,,0.01,Wunderground v.1.15,2013-06-19 01:37:00,
2013-06-18 21:38:00,67.9,63.2,29.92,North,357,1.0,2.0,85,0.00,,,0.01,Wunderground v.1.15,2013-06-19 01:38:00,
2013-06-18 21:39:00,67.9,63.2,29.92,North,357,3.0,3.0,85,0.00,,,0.01,Wunderground v.1.15,2013-06-19 01:39:00,
2013-06-18 21:40:00,67.9,63.2,29.92,NNE,19,3.0,4.0,85,0.00,,,0.01,Wunderground v.1.15,2013-06-19 01:40:00,
2013-06-18 21:42:00,67.9,63.2,29.93,NE,42,2.0,4.0,85,0.00,,,0.01,Wunderground v.1.15,2013-06-19 01:42:00,
2013-06-18 21:44:00,67.9,63.2,29.93,NE,46,3.0,4.0,85,0.00,,,0.01,Wunderground v.1.15,2013-06-19 01:44:00,
2013-06-18 21:46:00,67.9,63.2,29.93,NE,49,3.0,4.0,85,0.00,,,0.01,Wunderground v.1.15,2013-06-19 01:46:00,
2013-06-18 21:47:00,67.9,63.2,29.93,NE,55,0.0,5.0,85,0.00,,,0.01,Wunderground v.1.15,2013-06-19 01:47:00,
2013-06-18 21:49:00,67.9,63.2,29.92,NE,56,0.0,5.0,85,0.00,,,0.01,Wunderground v.1.15,2013-06-19 01:49:00,
2013-06-18 21:50:00,67.9,63.2,29.92,NE,55,0.0,2.0,85,0.00,,,0.01,Wunderground v.1.15,2013-06-19 01:50:00,
2013-06-18 21:51:00,67.9,62.9,29.93,NE,55,0.0,2.0,84,0.00,,,0.01,Wunderground v.1.15,2013-06-19 01:51:00,
2013-06-18 21:52:00,67.9,62.9,29.93,NE,56,0.0,2.0,84,0.00,,,0.01,Wunderground v.1.15,2013-06-19 01:52:00,
2013-06-18 21:53:00,67.9,62.9,29.93,ENE,65,3.0,4.0,84,0.00,,,0.01,Wunderground v.1.15,2013-06-19 01:53:00,
2013-06-18 21:54:00,67.8,62.8,29.93,East,80,1.0,5.0,84,0.00,,,0.01,Wunderground v.1.15,2013-06-19 01:54:00,
2013-06-18 21:55:00,67.8,62.8,29.93,East,80,3.0,5.0,84,0.00,,,0.01,Wunderground v.1.15,2013-06-19 01:55:00,
2013-06-18 21:56:00,67.8,62.8,29.93,East,80,3.0,5.0,84,0.00,,,0.01,Wunderground v.1.15,2013-06-19 01:56:00,
2013-06-18 21:57:00,67.7,62.7,29.93,East,82,1.0,5.0,84,0.00,,,0.01,Wunderground v.1.15,2013-06-19 01:57:00,
2013-06-18 21:58:00,67.7,62.7,29.93,East,82,2.0,5.0,84,0.00,,,0.01,Wunderground v.1.15,2013-06-19 01:58:00,
2013-06-18 22:00:00,67.7,62.7,29.93,East,82,1.0,5.0,84,0.00,,,0.01,Wunderground v.1.15,2013-06-19 02:00:00,
2013-06-18 22:01:00,67.6,62.6,29.93,East,82,0.0,4.0,84,0.00,,,0.01,Wunderground v.1.15,2013-06-19 02:01:00,
2013-06-18 22:02:00,67.6,62.6,29.93,East,82,0.0,4.0,84,0.00,,,0.01,Wunderground v.1.15,2013-06-19 02:02:00,
2013-06-18 22:03:00,67.6,62.6,29.93,East,82,0.0,4.0,84,0.00,,,0.01,Wunderground v.1.15,2013-06-19 02:03:00,
2013-06-18 22:05:00,67.5,62.5,29.94,East,82,0.0,6.0,84,0.00,,,0.01,Wunderground v.1.15,2013-06-19 02:05:00,
2013-06-18 22:06:00,67.5,62.2,29.94,East,82,2.0,6.0,83,0.00,,,0.01,Wunderground v.1.15,2013-06-19 02:06:00,
2013-06-18 22:07:00,67.5,62.2,29.94,East,83,3.0,6.0,83,0.00,,,0.01,Wunderground v.1.15,2013-06-19 02:07:00,
2013-06-18 22:08:00,67.4,62.1,29.94,East,83,3.0,6.0,83,0.00,,,0.01,Wunderground v.1.15,2013-06-19 02:08:00,
2013-06-18 22:10:00,67.4,62.1,29.94,East,83,0.0,1.0,83,0.00,,,0.01,Wunderground v.1.15,2013-06-19 02:10:00,
2013-06-18 22:11:00,67.4,62.1,29.94,East,83,0.0,1.0,83,0.00,,,0.01,Wunderground v.1.15,2013-06-19 02:11:00,
2013-06-18 22:12:00,67.4,62.1,29.94,East,82,1.0,1.0,83,0.00,,,0.01,Wunderground v.1.15,2013-06-19 02:12:00,
2013-06-18 22:13:00,67.3,62.0,29.94,East,83,0.0,1.0,83,0.00,,,0.01,Wunderground v.1.15,2013-06-19 02:13:00,
2013-06-18 22:15:00,67.3,62.0,29.94,East,83,0.0,1.0,83,0.00,,,0.01,Wunderground v.1.15,2013-06-19 02:15:00,
2013-06-18 22:16:00,67.3,62.0,29.94,East,82,0.0,1.0,83,0.00,,,0.01,Wunderground v.1.15,2013-06-19 02:16:00,
2013-06-18 22:17:00,67.2,61.5,29.94,East,83,0.0,1.0,82,0.00,,,0.01,Wunderground v.1.15,2013-06-19 02:17:00,
2013-06-18 22:18:00,67.2,61.5,29.94,East,83,0.0,1.0,82,0.00,,,0.01,Wunderground v.1.15,2013-06-19 02:18:00,
2013-06-18 22:21:00,67.2,61.9,29.94,East,82,0.0,0.0,83,0.00,,,0.01,Wunderground v.1.15,2013-06-19 02:21:00,
2013-06-18 22:22:00,67.2,61.5,29.94,East,83,0.0,0.0,82,0.00,,,0.01,Wunderground v.1.15,2013-06-19 02:22:00,
2013-06-18 22:24:00,67.1,61.4,29.94,East,83,0.0,0.0,82,0.00,,,0.01,Wunderground v.1.15,2013-06-19 02:24:00,
2013-06-18 22:26:00,67.1,61.8,29.94,East,83,0.0,1.0,83,0.00,,,0.01,Wunderground v.1.15,2013-06-19 02:26:00,
2013-06-18 22:27:00,67.1,61.8,29.94,East,82,0.0,1.0,83,0.00,,,0.01,Wunderground v.1.15,2013-06-19 02:27:00,
2013-06-18 22:29:00,67.0,62.0,29.94,East,82,0.0,1.0,84,0.00,,,0.01,Wunderground v.1.15,2013-06-19 02:29:00,
2013-06-18 22:31:00,67.0,62.0,29.94,East,83,0.0,1.0,84,0.00,,,0.01,Wunderground v.1.15,2013-06-19 02:31:00,
2013-06-18 22:32:00,67.0,62.0,29.94,East,83,0.0,1.0,84,0.00,,,0.01,Wunderground v.1.15,2013-06-19 02:32:00,
2013-06-18 22:34:00,66.9,61.9,29.94,East,82,0.0,2.0,84,0.00,,,0.01,Wunderground v.1.15,2013-06-19 02:34:00,
2013-06-18 22:37:00,66.8,61.8,29.94,East,83,0.0,3.0,84,0.00,,,0.01,Wunderground v.1.15,2013-06-19 02:37:00,
2013-06-18 22:40:00,66.7,61.7,29.94,East,83,2.0,3.0,84,0.00,,,0.01,Wunderground v.1.15,2013-06-19 02:40:00,
2013-06-18 22:42:00,66.6,61.6,29.94,East,83,1.0,3.0,84,0.00,,,0.01,Wunderground v.1.15,2013-06-19 02:42:00,
2013-06-18 22:43:00,66.6,61.6,29.94,East,83,0.0,3.0,84,0.00,,,0.01,Wunderground v.1.15,2013-06-19 02:43:00,
2013-06-18 22:45:00,66.5,61.5,29.95,East,83,0.0,3.0,84,0.00,,,0.01,Wunderground v.1.15,2013-06-19 02:45:00,
2013-06-18 22:47:00,66.4,61.4,29.95,East,83,0.0,3.0,84,0.00,,,0.01,Wunderground v.1.15,2013-06-19 02:47:00,
2013-06-18 22:48:00,66.4,61.8,29.95,East,82,0.0,3.0,85,0.00,,,0.01,Wunderground v.1.15,2013-06-19 02:48:00,
2013-06-18 22:50:00,66.3,61.7,29.95,East,83,0.0,0.0,85,0.00,,,0.01,Wunderground v.1.15,2013-06-19 02:50:00,
2013-06-18 22:52:00,66.2,61.6,29.95,East,82,0.0,0.0,85,0.00,,,0.01,Wunderground v.1.15,2013-06-19 02:52:00,
2013-06-18 22:53:00,66.2,61.6,29.95,East,83,0.0,0.0,85,0.00,,,0.01,Wunderground v.1.15,2013-06-19 02:53:00,
2013-06-18 22:55:00,66.1,61.5,29.95,East,82,0.0,0.0,85,0.00,,,0.01,Wunderground v.1.15,2013-06-19 02:55:00,
2013-06-18 22:57:00,66.0,61.4,29.95,East,82,0.0,0.0,85,0.00,,,0.01,Wunderground v.1.15,2013-06-19 02:57:00,
2013-06-18 22:58:00,66.0,61.4,29.95,East,82,0.0,0.0,85,0.00,,,0.01,Wunderground v.1.15,2013-06-19 02:58:00,
2013-06-18 23:00:00,65.9,61.3,29.95,East,83,0.0,0.0,85,0.00,,,0.01,Wunderground v.1.15,2013-06-19 03:00:00,
2013-06-18 23:02:00,65.8,61.5,29.95,East,83,0.0,0.0,86,0.00,,,0.01,Wunderground v.1.15,2013-06-19 03:02:00,
2013-06-18 23:03:00,65.8,61.5,29.95,East,83,0.0,0.0,86,0.00,,,0.01,Wunderground v.1.15,2013-06-19 03:03:00,
2013-06-18 23:05:00,65.7,61.4,29.95,East,83,0.0,0.0,86,0.00,,,0.01,Wunderground v.1.15,2013-06-19 03:05:00,
2013-06-18 23:08:00,65.6,61.3,29.95,East,82,0.0,0.0,86,0.00,,,0.01,Wunderground v.1.15,2013-06-19 03:08:00,
2013-06-18 23:11:00,65.6,61.6,29.95,East,83,0.0,0.0,87,0.00,,,0.01,Wunderground v.1.15,2013-06-19 03:11:00,
2013-06-18 23:13:00,65.5,61.5,29.95,East,83,0.0,0.0,87,0.00,,,0.01,Wunderground v.1.15,2013-06-19 03:13:00,
2013-06-18 23:14:00,65.5,61.5,29.95,East,82,0.0,0.0,87,0.00,,,0.01,Wunderground v.1.15,2013-06-19 03:14:00,
2013-06-18 23:16:00,65.4,61.4,29.95,East,83,0.0,0.0,87,0.00,,,0.01,Wunderground v.1.15,2013-06-19 03:16:00,
2013-06-18 23:18:00,65.4,61.4,29.94,East,83,0.0,0.0,87,0.00,,,0.01,Wunderground v.1.15,2013-06-19 03:18:00,
2013-06-18 23:19:00,65.4,61.4,29.94,East,83,0.0,0.0,87,0.00,,,0.01,Wunderground v.1.15,2013-06-19 03:19:00,
2013-06-18 23:21:00,65.3,61.3,29.94,East,82,0.0,0.0,87,0.00,,,0.01,Wunderground v.1.15,2013-06-19 03:21:00,
2013-06-18 23:23:00,65.2,61.2,29.94,East,83,0.0,0.0,87,0.00,,,0.01,Wunderground v.1.15,2013-06-19 03:23:00,
2013-06-18 23:24:00,65.1,61.1,29.94,East,82,0.0,0.0,87,0.00,,,0.01,Wunderground v.1.15,2013-06-19 03:24:00,
2013-06-18 23:26:00,65.0,61.0,29.94,East,83,0.0,0.0,87,0.00,,,0.01,Wunderground v.1.15,2013-06-19 03:26:00,
2013-06-18 23:29:00,65.0,61.4,29.95,East,83,0.0,0.0,88,0.00,,,0.01,Wunderground v.1.15,2013-06-19 03:29:00,
2013-06-18 23:31:00,64.9,61.3,29.95,East,82,0.0,0.0,88,0.00,,,0.01,Wunderground v.1.15,2013-06-19 03:31:00,
2013-06-18 23:34:00,64.9,61.3,29.95,East,82,0.0,0.0,88,0.00,,,0.01,Wunderground v.1.15,2013-06-19 03:34:00,
2013-06-18 23:37:00,64.8,61.5,29.95,East,83,0.0,0.0,89,0.00,,,0.01,Wunderground v.1.15,2013-06-19 03:37:00,
2013-06-18 23:39:00,64.7,61.4,29.95,East,83,0.0,0.0,89,0.00,,,0.01,Wunderground v.1.15,2013-06-19 03:39:00,
2013-06-18 23:40:00,64.7,61.4,29.95,East,83,0.0,0.0,89,0.00,,,0.01,Wunderground v.1.15,2013-06-19 03:40:00,
2013-06-18 23:42:00,64.7,61.4,29.95,East,83,0.0,0.0,89,0.00,,,0.01,Wunderground v.1.15,2013-06-19 03:42:00,
2013-06-18 23:44:00,64.6,61.3,29.95,East,82,0.0,0.0,89,0.00,,,0.01,Wunderground v.1.15,2013-06-19 03:44:00,
2013-06-18 23:45:00,64.6,61.3,29.95,East,83,0.0,0.0,89,0.00,,,0.01,Wunderground v.1.15,2013-06-19 03:45:00,
2013-06-18 23:47:00,64.6,61.3,29.95,East,82,0.0,0.0,89,0.00,,,0.01,Wunderground v.1.15,2013-06-19 03:47:00,
2013-06-18 23:49:00,64.6,61.3,29.95,East,83,0.0,0.0,89,0.00,,,0.01,Wunderground v.1.15,2013-06-19 03:49:00,
2013-06-18 23:50:00,64.5,61.2,29.95,East,83,0.0,0.0,89,0.00,,,0.01,Wunderground v.1.15,2013-06-19 03:50:00,
2013-06-18 23:52:00,64.5,61.2,29.95,East,83,0.0,0.0,89,0.00,,,0.01,Wunderground v.1.15,2013-06-19 03:52:00,
2013-06-18 23:54:00,64.5,61.2,29.95,East,83,0.0,0.0,89,0.00,,,0.01,Wunderground v.1.15,2013-06-19 03:54:00,
2013-06-18 23:55:00,64.4,61.4,29.95,East,82,0.0,0.0,90,0.00,,,0.01,Wunderground v.1.15,2013-06-19 03:55:00,
2013-06-18 23:57:00,64.4,61.4,29.96,East,83,0.0,0.0,90,0.00,,,0.01,Wunderground v.1.15,2013-06-19 03:57:00,
2013-06-18 23:59:00,64.4,61.4,29.95,NNE,18,2.0,5.0,90,0.00,,,0.01,Wunderground v.1.15,2013-06-19 03:59:00,